GFSGBSN_700_spd_114.txt.gz
Wind_Speed
41 41 41 41 39 39 39 39 40 39 38 38 37 36 36 36 35 36 37 37 37 37 37 37 35 37 34 33 30 33 26 24 23 20 19 18 14 13 19 16 18 24 26 29 30 28 31
40 40 39 38 39 39 38 38 37 37 37 36 36 35 35 37 36 36 37 37 39 40 39 37 38 38 41 41 27 30 29 31 24 26 21 18 15 14 24 24 25 26 29 29 25 27 29
39 39 38 37 37 38 38 36 37 36 36 35 34 34 33 34 35 35 37 36 37 39 40 37 39 41 44 42 31 32 35 29 28 27 25 23 23 24 24 20 17 19 26 29 31 32 34
38 38 37 36 35 36 35 34 34 34 33 33 32 32 32 34 34 36 36 36 37 39 40 38 40 40 49 43 42 34 30 34 29 29 29 26 27 29 28 27 31 30 30 35 28 25 28
37 37 37 36 36 37 36 34 34 33 33 34 32 33 33 33 36 35 34 35 36 38 39 38 39 38 45 37 31 30 27 20 15 17 19 21 21 24 21 21 27 22 34 31 38 26 27
37 36 37 36 36 36 36 35 34 33 33 33 32 31 32 32 34 35 33 33 35 37 38 40 37 37 24 22 15 19 18 14 17 18 23 22 23 24 16 19 34 28 30 33 38 29 23
38 38 38 37 38 37 36 35 34 33 33 33 32 31 31 31 33 32 32 33 36 36 40 38 35 40 26 14 23 20 20 24 24 24 25 22 23 26 22 25 31 34 35 38 39 35 36
37 38 38 38 37 37 36 34 33 33 33 33 32 30 30 30 32 30 32 33 34 34 41 42 42 42 39 33 38 35 21 23 17 26 22 23 35 29 27 29 32 36 40 42 40 36 34
39 38 38 38 37 36 35 34 33 32 32 31 31 30 29 30 33 33 30 31 33 34 37 46 43 44 38 30 36 34 26 30 29 28 27 32 36 30 32 34 36 37 38 40 43 39 38
43 42 41 41 41 40 38 36 34 33 33 31 30 30 30 32 35 32 31 30 31 24 18 43 26 29 19 19 30 19 28 30 36 41 37 37 33 34 38 37 37 36 30 34 37 33 30
45 46 45 44 44 42 41 38 36 35 35 33 32 31 31 32 34 32 30 24 20 10 5 11 10 22 10 16 10 3 5 23 32 35 33 47 35 33 34 33 31 36 34 30 28 24 28
47 47 47 46 44 43 42 41 37 37 36 33 31 30 29 31 33 33 29 22 10 9 12 11 13 12 19 18 19 17 9 13 18 24 27 34 31 32 28 27 24 23 22 28 29 28 22
49 48 48 46 45 44 43 41 37 36 36 34 32 29 30 28 31 31 27 12 13 16 11 20 24 18 16 18 19 19 18 18 17 18 25 26 32 31 28 24 20 18 18 10 5 10 15
51 51 50 47 46 45 44 40 36 35 35 34 31 29 29 27 29 30 24 24 15 30 36 13 11 20 24 19 21 20 18 21 18 19 23 20 17 22 24 25 20 14 14 11 6 7 15
51 52 51 49 47 45 44 42 37 35 34 32 30 30 31 28 29 29 26 34 36 38 25 27 27 27 28 24 22 20 19 22 19 18 23 13 12 11 13 20 17 17 24 22 17 22 18
49 50 50 48 46 45 44 43 38 35 33 30 30 30 30 28 27 25 31 38 43 33 29 24 29 24 28 26 27 25 21 14 16 21 22 22 19 18 13 11 15 15 6 6 8 4 10
46 47 47 47 47 43 43 43 38 35 33 31 30 29 33 30 31 39 39 47 46 34 26 23 28 29 28 25 26 17 17 16 12 14 15 15 14 10 9 13 17 17 21 14 9 8 4
45 44 45 46 46 44 41 40 38 34 31 32 32 37 37 34 43 42 48 46 39 31 30 26 22 26 27 24 22 20 17 14 14 12 13 20 7 10 15 10 10 18 18 19 22 15 17
47 45 45 46 46 44 38 39 35 30 27 31 34 39 40 43 47 48 48 48 50 36 27 29 29 24 22 21 12 17 14 19 17 17 10 18 11 10 11 14 13 14 17 18 18 19 22
48 47 46 45 44 44 37 38 30 27 24 31 38 35 40 44 48 48 48 49 46 43 35 27 26 22 21 20 22 15 15 14 19 15 15 10 9 11 8 2 6 10 15 19 22 21 23
38 40 41 44 43 43 40 38 31 27 32 34 42 35 42 35 52 48 42 42 37 28 41 33 23 20 22 17 16 15 17 11 18 20 21 14 13 13 19 20 15 16 15 14 19 24 24
34 34 35 37 39 43 43 40 33 31 37 36 41 43 39 41 33 40 37 35 32 30 25 25 22 21 20 15 19 16 17 19 22 22 23 14 11 12 16 15 15 19 20 21 23 23 25
33 34 34 34 35 43 44 43 32 34 33 43 40 39 27 34 41 38 49 32 28 29 24 25 20 16 21 18 12 12 14 12 6 11 13 14 9 7 12 11 13 13 19 22 23 22 24
33 33 34 34 34 41 46 36 29 33 33 43 39 34 19 20 26 39 37 30 30 30 24 17 15 14 15 19 17 15 13 12 13 11 9 11 12 10 12 5 7 8 6 10 11 12 13
34 34 30 27 31 37 41 39 35 42 36 28 31 31 30 26 23 36 30 30 23 19 15 17 20 23 21 17 11 7 6 9 14 12 12 12 12 11 12 13 16 11 10 16 19 18 15
19 21 21 25 27 30 44 30 31 33 32 23 30 27 31 32 29 23 28 27 32 24 25 24 23 20 20 19 11 9 8 8 7 5 13 14 13 15 10 10 7 7 10 9 10 13 18
23 17 19 20 24 36 27 27 28 30 30 31 33 29 37 24 26 25 28 31 26 24 20 22 20 20 18 18 14 8 10 9 9 11 10 13 13 16 16 12 6 13 11 11 6 8 10
19 18 20 21 24 26 23 25 34 30 33 32 28 24 25 28 29 25 25 21 20 16 19 21 19 18 18 11 10 7 5 10 5 9 12 11 10 12 14 9 11 10 11 8 14 19 19
22 25 17 18 19 18 23 29 26 30 33 32 30 24 30 28 30 25 27 25 26 22 15 16 10 19 15 11 9 9 8 7 8 7 14 7 11 2 7 4 7 13 16 16 15 17 14

GFSGBSN_700_spd_117.txt.gz
Wind_Speed
40 39 39 39 38 37 37 37 36 36 37 35 35 35 35 34 35 35 34 34 34 35 33 33 34 32 32 31 22 26 26 21 18 23 18 19 18 17 17 15 13 21 23 26 29 29 32
41 40 39 38 37 38 37 38 38 37 36 35 33 33 32 32 33 33 35 33 34 35 35 33 35 33 36 33 23 23 28 28 24 24 18 16 17 16 24 22 22 26 26 31 31 33 32
39 38 37 36 35 35 36 35 35 34 34 33 32 31 30 30 30 32 32 33 33 34 37 35 37 36 39 30 30 25 32 32 30 26 25 19 19 21 24 27 20 16 27 29 26 27 30
36 35 34 35 33 34 33 33 32 32 31 30 31 30 29 30 30 31 32 34 34 35 36 36 36 38 42 36 35 25 19 19 20 17 19 19 22 27 27 28 28 27 31 41 34 25 25
35 34 34 35 34 34 33 31 30 31 29 29 30 30 29 29 32 31 33 31 33 33 35 37 35 37 39 26 28 24 18 13 12 15 14 14 16 21 21 22 24 15 27 32 38 18 25
35 35 34 34 34 33 32 32 30 29 30 29 29 29 28 29 32 30 30 30 32 33 34 37 36 36 13 15 26 31 22 14 11 14 17 18 21 23 19 16 26 26 22 27 36 30 31
36 35 35 34 34 33 33 31 31 29 29 29 28 28 28 28 31 30 30 29 28 34 36 34 34 39 35 28 28 14 8 18 20 19 25 26 27 31 26 21 23 23 29 36 38 35 29
37 36 35 35 34 33 33 32 31 29 29 30 29 29 28 28 32 28 29 27 25 31 42 36 36 42 35 27 33 29 23 19 22 19 17 20 37 28 23 22 24 26 31 37 38 35 34
37 36 35 34 34 34 31 30 29 28 27 27 28 27 27 27 30 28 28 24 25 27 37 48 40 42 34 28 31 27 27 31 31 28 20 30 24 12 25 31 31 33 35 36 40 32 27
39 38 37 36 35 34 33 31 29 28 27 28 28 27 27 27 29 28 27 23 23 22 24 41 25 13 9 9 14 1 7 15 28 35 32 35 30 30 31 35 32 37 31 32 28 26 18
42 42 41 40 39 38 36 35 33 31 29 30 29 29 29 28 30 30 26 21 17 11 5 10 5 8 8 7 5 5 1 11 18 21 28 42 36 39 38 39 34 38 27 23 26 28 24
45 44 43 43 43 42 40 38 36 34 32 31 31 30 31 29 30 29 25 18 11 6 11 8 8 10 13 15 12 14 1 8 8 20 24 32 24 31 33 32 35 30 22 20 22 18 10
45 46 44 44 44 44 42 40 38 36 33 33 33 32 34 31 31 29 22 11 11 12 8 14 18 17 15 13 11 14 10 16 19 14 20 19 26 23 25 29 31 22 18 6 5 3 11
48 47 46 45 45 44 43 41 39 36 34 35 35 35 34 33 31 29 19 19 13 38 38 17 5 9 19 24 18 11 19 22 15 23 26 24 18 18 17 23 29 17 14 8 4 2 6
49 48 46 46 47 46 44 42 40 37 35 35 35 35 35 34 33 30 24 30 28 40 24 22 23 31 31 21 19 19 19 25 27 17 26 10 12 15 15 15 13 14 19 15 13 19 11
43 47 46 46 47 47 46 44 43 40 37 36 37 36 35 34 32 26 28 38 43 40 32 18 22 19 25 24 27 23 25 24 19 23 22 22 22 24 20 17 14 18 5 5 6 3 4
37 40 43 45 45 46 47 45 44 42 38 34 37 36 37 35 27 29 40 46 42 41 34 23 29 31 29 30 22 24 22 20 22 16 17 18 24 13 17 13 14 16 17 11 6 6 3
44 41 39 40 44 44 45 45 43 42 37 34 35 32 37 30 40 45 46 48 42 44 33 35 32 28 28 24 23 23 18 22 10 16 15 18 13 17 20 17 12 14 16 21 19 10 10
48 45 44 42 42 42 43 44 42 40 35 33 33 36 37 35 41 43 48 51 46 47 33 29 32 35 28 23 19 22 16 21 20 17 15 19 11 4 6 10 16 20 19 19 21 20 11
44 46 46 44 44 43 42 42 42 37 30 28 28 26 35 37 43 43 43 48 46 48 43 34 35 26 30 27 26 13 16 17 17 21 19 19 21 16 12 5 3 7 12 21 18 21 20
43 42 42 42 46 44 44 41 40 38 31 28 34 32 39 34 47 47 47 47 50 49 35 34 39 35 31 26 22 25 20 23 21 21 20 21 17 13 14 14 17 14 14 15 16 20 22
37 38 38 38 38 41 44 43 38 41 35 33 36 36 38 45 36 41 47 49 45 44 37 37 41 36 33 38 29 27 27 26 22 16 21 21 14 16 18 18 18 15 19 20 17 21 24
33 33 33 34 34 35 36 39 41 43 40 36 44 35 23 33 42 36 41 51 42 40 41 36 36 37 32 33 24 19 17 23 16 15 20 20 20 8 6 10 11 13 20 22 24 19 16
31 32 32 31 31 32 32 33 40 46 44 39 45 33 42 35 33 39 38 34 40 37 37 33 28 31 30 27 22 13 16 21 16 13 10 13 16 10 5 5 3 7 6 8 9 15 13
31 32 32 32 32 32 31 32 39 48 50 44 38 33 39 29 34 26 28 32 28 33 34 32 32 28 30 23 20 14 14 13 18 16 12 13 14 7 6 9 12 12 14 13 16 18 21
33 33 32 32 31 30 29 32 39 46 46 38 37 28 37 41 31 21 20 27 35 35 30 29 21 25 23 24 17 9 9 10 9 9 18 15 15 14 7 4 4 8 12 15 11 16 18
25 24 21 24 29 29 29 29 32 44 32 37 37 29 29 36 33 27 29 29 34 25 26 27 30 31 30 26 19 10 9 10 12 13 17 19 13 18 19 9 8 14 12 13 6 10 12
13 17 19 21 22 23 26 28 35 34 25 28 27 27 26 22 25 33 31 33 41 31 36 32 30 27 27 21 19 10 9 12 12 14 10 14 14 13 15 10 11 12 11 12 17 19 21
18 21 20 15 19 25 27 28 33 24 21 27 35 31 22 23 16 25 30 27 30 26 28 26 25 25 21 19 10 12 10 11 10 12 15 11 12 10 10 10 8 8 13 16 15 15 15

GFSGBSN_700_spd_123.txt.gz
Wind_Speed
39 38 40 40 36 38 38 37 37 37 36 38 37 38 37 39 38 38 36 33 32 32 31 30 28 26 24 20 19 21 24 22 20 17 14 18 20 20 18 17 18 22 22 21 23 25 26
40 40 40 42 40 40 38 39 38 37 37 37 36 36 36 35 35 34 33 32 30 29 30 29 28 27 26 22 22 23 21 21 21 19 20 20 21 23 22 22 21 23 24 24 26 26 27
40 38 40 40 41 39 40 39 39 37 38 38 37 36 35 34 34 33 31 31 30 28 29 30 29 29 28 23 22 23 23 20 23 22 22 21 22 22 23 21 21 25 27 25 23 21 24
41 41 40 39 38 40 39 38 38 35 37 35 36 33 33 32 30 30 30 30 29 28 29 30 30 30 29 26 25 26 20 17 16 16 13 15 19 23 23 22 26 27 27 24 11 11 21
38 39 38 38 36 36 36 36 35 35 35 34 34 32 32 31 29 29 30 30 30 29 30 30 31 28 25 18 15 17 16 14 14 16 15 15 22 25 22 21 23 18 19 22 20 15 14
38 37 36 35 36 34 33 33 32 32 31 31 32 32 32 30 28 29 29 29 28 30 29 28 32 27 13 11 13 16 23 28 23 21 17 17 22 21 20 20 21 20 20 19 18 16 19
36 36 35 35 34 34 32 32 33 31 30 31 31 31 32 30 28 28 26 24 27 31 30 27 28 28 26 29 30 23 26 26 23 23 19 16 24 28 21 19 21 22 22 24 20 17 23
38 37 36 35 35 33 33 33 32 31 29 31 30 31 31 30 28 26 23 23 27 31 36 28 27 32 24 28 33 24 28 28 27 26 19 23 29 22 19 21 19 18 24 24 23 19 21
38 37 37 36 35 34 34 33 33 32 31 31 30 30 30 28 26 22 18 21 24 25 32 34 30 32 21 27 31 19 28 31 31 27 26 26 17 6 12 14 14 20 24 25 26 24 31
38 36 36 35 34 33 33 33 33 32 31 30 29 29 28 25 24 18 17 18 19 19 21 28 19 13 6 5 10 7 22 29 28 23 23 20 23 24 24 25 24 27 21 26 30 27 26
39 38 35 35 35 33 32 30 30 30 28 28 28 28 26 24 23 15 17 16 15 13 5 9 6 6 8 5 7 5 6 10 16 21 22 20 19 15 15 18 14 24 24 29 31 26 26
41 40 40 38 37 35 34 31 30 30 29 28 28 28 27 25 22 18 17 16 12 7 8 6 7 10 11 8 8 9 6 7 9 16 21 25 22 23 20 15 17 17 20 21 20 24 11
38 38 38 40 39 38 37 35 33 32 31 31 31 31 29 27 23 21 17 15 10 10 9 9 15 18 14 10 11 12 10 11 12 10 17 16 18 16 15 18 13 16 15 5 3 2 6
38 32 34 36 39 40 39 38 37 35 34 34 33 34 32 29 25 22 16 19 13 21 30 11 12 12 18 17 16 15 20 22 19 18 20 12 9 7 8 10 11 12 15 11 4 3 5
40 39 38 34 36 41 39 39 37 36 36 34 35 36 35 29 25 23 21 22 29 35 24 23 25 16 17 18 19 15 21 24 24 20 24 9 10 7 10 16 11 9 13 17 15 8 3
41 39 40 38 36 37 34 36 35 36 36 35 35 36 35 28 26 22 29 35 37 39 22 17 16 14 19 19 13 13 17 17 27 29 26 25 23 18 17 19 17 17 13 5 6 3 5
47 46 45 44 40 34 30 27 31 28 29 31 34 36 35 29 26 25 37 40 41 41 34 31 27 18 18 17 18 18 9 10 11 16 23 31 30 21 18 22 23 20 19 16 12 8 4
46 45 43 40 36 35 34 32 30 30 28 31 31 35 32 27 28 33 40 40 38 39 28 39 38 26 29 33 28 27 25 17 13 15 18 17 13 17 19 21 21 20 22 22 17 8 13
49 48 46 43 41 40 38 35 31 34 35 33 33 33 30 24 33 37 39 37 40 41 29 35 36 27 25 32 33 34 32 25 21 22 21 21 14 9 7 17 18 19 24 25 27 28 23
50 51 49 46 43 43 40 40 36 36 37 34 32 28 31 31 36 38 45 44 43 43 45 35 31 24 28 34 29 23 20 20 20 19 20 24 26 22 17 13 7 15 19 21 24 23 23
43 51 51 49 46 42 41 41 36 36 35 36 37 37 34 23 43 41 42 43 41 44 45 34 35 45 38 31 31 31 29 31 27 29 23 24 26 25 27 25 26 25 22 22 28 32 21
40 43 48 50 48 45 42 41 39 34 32 37 40 42 40 37 28 36 42 46 46 44 47 39 40 39 25 34 36 37 35 30 29 22 28 27 27 25 30 29 23 28 24 23 27 28 30
38 40 43 42 46 47 43 36 38 38 39 39 38 39 38 39 32 36 42 46 49 48 45 42 36 36 34 39 33 33 30 32 32 30 24 28 31 25 15 15 17 20 26 29 31 28 28
31 34 37 38 38 38 38 39 37 35 40 39 37 35 38 41 42 36 33 40 43 46 50 45 38 37 33 36 37 36 33 33 35 38 35 28 27 19 4 7 5 11 13 17 22 25 27
31 31 32 34 34 34 34 35 36 37 39 40 37 37 39 44 44 33 30 31 31 35 38 36 37 38 27 31 33 28 29 31 36 39 39 33 24 9 7 15 11 8 14 14 15 15 16
32 32 32 32 33 33 33 34 36 38 39 40 38 39 39 36 47 42 37 24 36 28 27 33 28 27 30 33 29 18 12 16 11 11 22 19 19 21 12 5 6 5 14 21 18 24 27
29 31 32 33 33 34 34 34 34 34 35 38 37 40 42 41 40 33 41 39 23 21 23 25 25 27 27 42 30 14 16 15 12 16 21 24 23 25 18 9 9 17 18 15 12 14 10
31 30 32 32 33 35 35 34 33 33 34 37 35 37 44 44 42 19 34 37 26 30 28 27 20 24 28 30 32 16 12 16 12 16 19 25 18 18 17 9 12 18 15 18 14 12 17
30 33 32 32 33 35 35 34 34 32 34 35 35 34 38 43 40 42 32 35 32 26 27 26 24 25 28 33 18 14 11 17 18 16 19 19 21 19 15 11 14 9 9 10 13 16 19

GFSGBSN_700_spd_126.txt.gz
Wind_Speed
38 35 37 35 36 34 34 37 34 37 35 36 37 37 34 35 35 35 35 33 34 33 34 31 30 26 23 20 21 20 21 20 19 17 16 15 17 19 19 18 18 18 20 21 21 21 22
40 39 39 38 38 38 39 39 34 36 38 38 37 38 37 35 33 33 33 32 32 32 33 29 28 25 23 22 21 20 18 20 20 17 18 20 22 22 22 22 20 22 23 23 25 23 23
40 39 40 38 37 38 38 39 41 40 39 38 37 35 35 35 34 34 33 32 31 31 31 28 28 27 24 22 22 20 18 18 22 21 21 23 24 23 24 19 20 21 25 23 20 21 22
43 43 44 43 40 34 38 38 39 40 39 38 38 37 34 32 31 30 29 29 30 30 30 29 28 28 26 24 24 22 19 19 16 15 13 17 19 21 21 19 24 25 27 23 7 16 17
33 34 34 37 38 38 41 39 38 37 38 37 37 36 33 32 31 30 28 28 30 30 31 30 30 28 25 19 14 11 11 13 13 12 13 17 21 23 22 22 24 18 16 19 20 16 16
35 35 37 38 37 38 37 37 36 35 35 35 35 35 32 31 31 30 28 29 30 32 31 30 30 25 16 17 17 11 11 18 22 21 18 19 24 26 21 22 16 12 12 20 23 24 20
37 37 37 37 37 36 36 35 36 36 34 32 32 32 29 29 29 28 27 28 30 31 32 29 26 26 25 26 28 24 24 25 24 20 19 19 26 28 16 16 18 17 19 23 24 19 24
37 38 38 37 37 37 36 36 35 35 34 32 32 31 30 29 27 26 26 26 27 30 35 29 29 31 26 27 30 22 27 26 26 25 20 23 28 20 18 19 18 18 19 20 21 15 23
42 38 38 38 37 36 36 35 35 34 34 32 32 32 29 28 25 24 24 26 25 23 31 33 30 31 24 28 31 20 28 29 32 29 25 25 16 12 14 14 15 18 16 18 22 22 24
44 40 39 37 38 37 36 35 35 35 33 32 31 31 29 27 25 22 24 21 20 17 19 29 24 21 14 14 19 15 23 27 30 26 24 19 17 20 19 20 21 21 17 18 20 21 20
41 43 42 38 36 35 35 35 34 34 33 32 31 30 29 26 21 18 19 17 12 10 4 10 7 5 8 11 8 8 4 5 11 16 19 10 11 11 18 16 9 18 12 14 17 19 21
34 35 38 41 37 35 34 36 34 32 32 30 29 29 26 23 20 20 18 14 10 6 7 6 5 9 11 11 11 8 8 9 10 18 18 20 21 19 18 14 12 14 15 19 18 18 8
36 35 32 31 35 37 35 34 33 30 30 30 29 29 27 24 21 19 17 14 9 10 7 5 11 11 13 12 11 8 8 10 9 8 15 16 15 14 16 16 13 17 14 4 2 4 6
39 40 36 35 35 33 35 36 37 33 33 31 31 32 31 26 22 20 17 16 12 13 28 3 7 8 15 17 15 14 16 16 15 16 17 9 7 5 5 14 13 10 16 9 4 3 4
41 40 40 35 32 33 34 32 33 35 34 34 34 35 34 26 25 21 21 19 24 32 21 18 22 11 13 16 18 11 18 23 21 20 24 8 10 7 7 8 11 11 15 16 19 11 4
46 44 43 41 38 38 37 35 36 32 31 35 35 36 38 26 26 22 24 30 33 37 24 13 13 11 13 17 14 16 20 15 22 25 25 27 24 21 19 17 19 23 14 6 7 2 4
49 48 43 40 43 41 39 38 36 32 29 30 34 36 38 29 26 26 34 39 39 40 31 27 23 14 17 11 12 11 7 11 9 10 14 21 30 27 19 20 24 21 20 15 13 10 4
52 48 46 43 40 42 41 39 34 30 29 32 36 36 33 27 29 33 39 41 40 39 30 29 32 24 28 30 27 22 23 21 17 14 19 18 10 14 21 19 22 22 26 26 16 7 12
48 49 52 49 48 45 42 40 34 34 35 37 38 32 34 21 32 37 39 41 40 37 27 31 30 25 25 30 30 31 33 30 26 25 19 21 22 11 5 13 19 25 28 27 30 33 26
46 42 52 51 51 49 46 42 38 38 38 37 39 37 33 32 32 36 38 43 40 39 42 35 25 20 24 27 28 24 22 13 7 15 19 22 27 25 20 21 20 16 19 23 28 24 24
45 39 42 50 49 48 44 41 39 42 38 40 38 33 34 29 40 37 29 37 37 43 42 31 30 41 30 25 24 30 29 26 26 25 26 28 30 29 30 28 29 27 22 19 25 31 29
44 41 45 47 46 48 43 40 45 38 41 38 43 43 33 40 32 34 37 43 39 41 38 34 34 31 23 34 37 35 33 33 30 23 22 27 31 26 34 31 30 29 32 34 31 33 41
39 39 39 41 46 43 48 40 38 43 40 44 46 43 41 33 33 32 37 38 43 42 42 42 29 32 34 38 33 35 35 33 33 29 28 30 30 26 21 25 26 27 38 33 31 30 31
31 34 37 40 43 44 40 36 39 39 42 43 39 37 41 40 36 40 39 35 37 37 43 38 32 37 38 30 28 33 35 36 37 35 34 33 31 28 19 10 5 18 15 15 18 20 24
31 33 35 38 44 45 46 44 41 37 39 40 36 36 36 40 39 39 35 35 29 31 33 40 39 39 34 33 32 30 30 27 35 35 35 33 31 19 9 14 18 16 14 16 16 16 17
31 31 31 33 36 39 41 41 40 38 37 37 35 35 38 38 43 38 38 38 41 40 35 34 30 26 28 33 30 25 16 17 11 12 21 34 35 31 15 5 8 5 4 8 12 22 21
35 32 32 31 31 34 36 37 38 37 37 38 39 36 36 39 41 32 35 37 39 35 29 21 23 21 26 32 34 31 26 21 16 15 13 27 34 32 22 11 8 12 16 14 10 13 11
38 35 33 32 31 31 33 33 34 35 36 38 37 34 38 42 43 36 37 28 30 38 35 30 13 18 16 28 26 24 24 26 18 20 23 26 18 17 20 12 9 16 15 16 13 13 11
32 34 32 32 33 33 33 33 33 34 34 36 36 33 34 38 38 38 39 32 29 24 25 25 23 21 7 13 22 21 19 16 23 15 21 18 26 15 14 10 15 10 9 8 8 11 16

GFSGBSN_700_spd_132.txt.gz
Wind_Speed
39 38 41 40 38 38 37 36 34 34 32 30 30 28 26 26 26 28 29 29 27 27 23 23 22 19 18 17 16 17 17 17 16 16 16 15 14 11 10 11 12 13 18 17 18 15 16
41 37 41 40 46 41 40 38 37 37 36 33 31 30 29 30 29 31 30 28 27 24 22 20 19 18 17 16 16 14 14 15 17 17 16 14 15 15 16 16 14 18 19 18 18 16 17
46 41 45 39 45 48 44 40 40 39 39 36 33 33 31 32 32 32 31 29 27 25 20 17 16 15 15 16 14 13 14 15 16 18 18 17 16 15 15 17 16 15 14 13 13 18 19
52 48 51 48 49 48 47 47 44 41 41 39 36 35 33 33 33 32 30 30 26 25 21 20 19 19 17 18 19 18 18 16 16 19 18 15 12 10 10 12 16 14 15 8 12 11 15
45 43 49 45 48 42 40 43 45 39 41 37 36 34 33 34 33 32 32 30 28 26 26 25 23 21 21 19 14 12 11 10 10 12 12 13 13 10 12 13 10 12 11 9 9 14 18
36 40 37 36 42 49 51 48 48 45 50 41 36 35 34 36 36 33 30 31 31 31 28 28 26 22 17 18 15 11 11 13 13 14 13 17 19 16 17 11 12 9 9 10 10 9 13
41 33 33 29 37 35 40 43 44 43 33 36 34 31 30 30 31 30 27 27 28 28 27 23 18 15 17 20 18 16 16 16 16 19 20 20 14 13 12 14 16 16 13 16 17 17 19
29 33 31 24 24 26 32 34 29 28 25 26 26 27 28 27 28 27 26 26 25 26 29 23 23 24 22 23 25 23 22 23 24 20 21 21 18 16 18 20 19 15 16 19 18 12 14
28 27 29 29 27 26 26 26 28 27 26 28 27 28 27 25 25 24 25 24 23 23 27 26 25 27 24 25 25 26 25 26 26 22 22 19 12 8 11 12 15 15 17 18 16 16 19
34 31 31 31 31 30 29 28 30 30 29 29 29 30 27 25 25 24 24 21 20 18 15 18 21 21 18 21 24 26 29 30 27 23 17 17 18 22 13 15 13 16 13 14 14 11 10
36 35 34 34 31 34 34 34 31 29 32 34 33 29 27 27 24 20 19 17 13 10 5 8 11 9 9 12 10 10 19 18 20 16 17 9 10 5 10 11 10 11 11 7 10 14 17
41 39 37 37 35 34 32 34 36 33 33 30 31 28 26 25 23 22 17 13 9 7 9 6 6 6 6 9 9 6 6 7 9 9 12 13 14 10 8 8 9 7 6 10 12 13 13
41 40 38 39 37 36 35 36 32 32 33 30 29 26 24 22 22 21 18 15 12 11 7 6 9 8 6 7 8 6 4 2 3 3 7 7 12 11 11 9 10 11 8 7 7 8 8
43 42 42 40 38 40 39 35 37 33 30 32 28 24 23 21 21 19 19 20 14 10 16 6 6 4 6 6 6 7 6 6 8 7 4 7 7 8 4 6 7 12 13 9 7 7 9
48 41 39 41 37 35 33 33 30 31 36 35 34 31 24 21 23 23 25 26 24 19 9 13 16 11 8 7 5 5 8 10 8 10 9 6 8 6 7 7 8 7 11 15 20 23 17
48 48 41 40 41 39 35 31 27 29 30 32 35 37 34 26 27 27 27 28 21 25 24 18 16 14 16 14 11 11 14 8 9 12 14 9 14 14 16 16 17 16 13 12 12 9 17
55 48 44 46 43 44 38 34 33 29 30 27 28 32 30 28 28 31 34 35 27 34 25 20 14 12 9 10 10 12 11 7 6 8 9 6 11 14 13 16 20 16 19 18 22 22 13
34 54 50 43 53 40 44 37 36 34 34 35 34 28 28 25 30 35 40 29 32 29 29 27 24 20 17 12 11 12 13 10 12 15 13 8 8 19 21 18 21 20 25 25 26 18 17
38 34 54 56 39 38 40 41 40 38 40 40 33 32 21 24 32 36 35 37 33 31 24 20 20 23 17 18 11 14 15 17 23 21 14 14 15 21 26 21 17 19 21 22 27 20 20
31 31 35 50 48 38 47 44 42 51 39 40 40 34 31 31 32 32 32 34 32 35 31 24 20 22 16 15 16 13 12 11 11 14 15 12 16 21 24 21 16 15 17 18 22 22 28
29 28 31 35 33 44 42 38 40 39 40 40 41 28 36 30 38 30 27 22 29 25 18 17 23 21 14 15 16 19 18 18 17 18 22 15 21 21 26 27 25 28 29 30 32 34 32
25 26 28 32 33 35 44 53 42 42 39 39 46 40 36 32 28 35 27 34 26 19 24 18 21 13 17 25 22 16 12 15 18 16 13 15 21 19 27 24 25 29 34 36 35 37 38
27 28 30 30 32 31 38 51 50 40 40 47 52 50 37 35 33 34 38 28 22 22 23 20 19 18 19 18 18 20 21 21 22 19 18 19 20 16 30 19 17 21 38 34 36 34 34
31 31 32 33 35 33 31 32 42 44 43 49 44 44 42 34 33 40 32 30 28 23 19 15 17 19 19 21 21 23 25 26 28 28 26 28 25 23 30 23 15 31 26 29 26 28 26
30 33 34 35 35 37 37 39 37 41 43 44 41 45 44 34 34 29 25 24 25 23 23 22 22 19 18 19 18 18 18 22 28 32 33 32 29 28 25 28 29 39 31 31 28 35 26
30 30 30 32 35 33 35 36 35 45 41 43 46 54 41 40 39 31 29 27 24 21 19 25 23 18 19 19 16 18 16 17 12 9 9 25 33 32 29 23 20 40 19 17 19 31 23
29 29 29 31 32 34 34 38 36 43 45 44 32 52 40 51 41 36 32 26 24 23 24 19 18 19 19 21 23 25 30 23 30 28 19 11 18 31 33 33 32 28 21 19 15 19 14
25 25 26 28 29 29 30 35 34 35 36 30 31 29 48 40 40 43 34 32 31 28 22 15 15 19 23 27 19 23 23 25 27 32 25 27 20 21 22 26 24 24 23 27 22 18 19
21 22 24 26 27 28 27 29 28 28 34 32 30 28 29 45 33 39 31 32 29 24 23 25 24 17 15 11 24 23 22 15 25 29 22 28 31 28 20 19 22 22 20 21 18 17 16

GFSGBSN_700_spd_138.txt.gz
Wind_Speed
41 40 39 37 36 35 34 33 32 31 30 29 29 29 30 30 29 28 27 27 27 26 26 25 25 22 18 19 21 15 19 16 15 13 12 11 9 5 8 8 13 15 14 13 15 16 19
45 45 43 41 40 39 37 37 36 35 34 34 33 34 34 34 32 31 29 28 28 28 26 25 24 23 18 17 19 17 15 14 13 11 10 9 6 12 14 11 15 14 13 17 16 15 14
47 48 49 45 42 43 41 40 40 39 38 38 37 37 35 35 35 33 32 30 29 29 28 26 24 24 19 17 18 17 14 12 14 13 12 12 13 13 9 8 12 16 18 18 20 19 16
56 58 46 47 49 50 44 42 44 43 39 39 40 39 37 37 36 36 34 32 30 29 27 26 24 25 25 23 21 22 20 18 17 17 15 16 14 16 16 14 14 14 14 18 14 22 17
49 51 44 47 47 52 50 40 44 43 48 45 40 42 42 39 37 34 33 33 31 30 30 29 27 27 29 28 27 26 21 20 17 15 15 15 13 12 7 11 10 12 16 15 15 15 13
49 44 45 43 42 38 46 47 52 52 52 49 44 43 49 43 39 36 35 33 31 33 34 33 33 28 26 25 27 18 17 17 18 15 13 11 12 11 10 15 18 15 15 15 11 11 14
42 38 34 36 30 26 23 20 27 43 45 46 48 42 48 47 43 39 36 32 32 30 37 32 20 19 23 26 23 21 16 12 12 12 9 8 11 15 16 18 21 21 20 20 18 19 21
36 46 50 47 50 45 43 37 38 29 26 27 30 31 37 35 36 35 34 31 32 32 34 32 28 30 26 30 27 20 20 20 20 18 11 15 20 18 18 19 19 16 17 21 22 20 22
26 25 22 26 27 28 28 24 23 24 24 25 28 28 25 27 32 26 23 24 24 21 31 37 32 32 26 29 31 27 25 23 22 18 19 24 19 8 16 16 19 18 19 20 23 21 24
32 30 30 25 27 22 22 22 21 20 22 25 28 23 22 21 18 17 19 19 15 14 17 24 24 27 29 30 34 25 25 25 22 24 22 26 23 26 24 20 22 26 19 22 17 15 20
33 32 33 28 28 24 28 26 27 24 20 22 20 21 22 20 21 15 27 17 14 10 6 3 16 19 21 21 20 17 27 31 29 24 18 23 12 18 22 24 21 26 17 14 14 18 19
33 32 35 37 34 30 31 30 28 25 24 21 21 22 19 20 23 26 16 13 10 7 10 9 9 11 16 17 20 15 18 26 25 28 25 26 20 18 18 14 18 14 13 14 16 15 17
43 42 33 30 32 32 31 29 26 26 25 26 25 25 24 24 24 21 17 15 11 13 6 11 8 10 14 12 16 17 14 18 15 14 22 24 27 22 15 15 13 11 11 8 9 13 12
42 49 39 32 31 38 30 31 32 29 27 28 29 29 25 23 24 20 21 21 16 11 26 3 7 11 16 16 14 15 13 15 19 16 12 20 20 24 21 21 18 19 14 12 9 10 15
45 44 46 46 37 40 38 30 31 32 27 26 28 29 28 28 23 21 26 29 22 25 6 6 24 14 15 17 16 19 20 18 19 20 19 15 18 13 21 15 16 17 20 19 20 21 19
44 43 45 45 42 45 41 38 35 35 32 27 28 28 29 26 23 26 28 39 27 17 12 16 14 13 14 16 15 12 16 11 20 17 13 19 17 14 15 14 17 15 14 16 15 3 12
53 49 45 42 46 43 38 40 39 35 35 36 30 31 35 25 26 28 40 45 32 20 11 9 13 15 16 13 15 16 20 11 11 6 12 11 16 20 15 16 15 17 19 20 19 21 11
45 48 50 48 46 47 45 37 40 39 37 38 38 40 37 30 30 37 44 42 30 24 19 17 13 17 14 15 17 18 17 7 11 12 9 7 10 15 20 20 20 14 18 16 13 9 8
34 43 47 47 46 50 46 49 36 40 41 41 41 41 39 36 39 42 44 34 31 22 24 23 19 20 20 18 16 17 17 9 12 13 8 7 7 12 21 22 24 25 24 26 29 27 27
29 28 38 47 46 44 46 45 48 43 44 44 50 48 42 37 37 34 38 31 24 27 22 20 17 14 17 22 22 18 17 14 17 16 20 20 22 22 19 21 23 28 20 21 25 24 26
29 27 29 39 44 46 41 43 49 51 45 51 59 38 39 37 44 37 23 24 28 25 28 21 18 20 16 18 18 25 26 25 16 21 25 25 27 24 25 29 27 28 28 30 31 30 30
28 27 26 28 37 45 45 41 38 48 47 51 62 43 48 37 29 37 30 28 30 26 24 26 23 19 19 21 20 20 22 24 27 23 25 19 23 19 25 26 26 28 31 34 33 33 36
28 27 26 25 31 32 35 43 47 50 50 58 60 54 35 39 28 30 35 36 29 26 22 28 23 17 20 20 20 21 22 14 16 18 13 18 18 17 26 26 25 18 39 30 29 29 30
27 28 26 27 29 34 34 36 37 45 46 42 56 54 51 39 32 39 28 29 27 26 24 19 16 17 18 23 23 25 26 19 20 21 19 21 21 21 26 22 17 34 29 26 27 29 33
25 27 28 24 27 35 39 33 36 32 35 39 32 30 40 32 39 36 28 24 26 23 24 18 17 22 25 17 16 12 18 22 29 30 31 30 28 31 29 29 29 35 38 24 27 34 35
24 24 26 24 22 22 27 35 30 35 31 27 30 23 27 23 28 31 26 28 24 25 21 20 17 17 22 18 15 19 21 20 17 23 27 34 36 34 30 24 19 47 30 20 16 33 26
28 26 25 23 24 23 24 26 23 20 18 22 18 22 27 22 15 30 30 32 28 25 26 23 26 15 15 14 15 18 25 21 29 27 26 20 35 33 38 28 31 46 33 27 25 29 19
31 29 28 26 26 28 26 26 27 25 24 22 22 20 19 19 20 21 18 31 27 23 22 21 23 25 21 19 15 17 17 22 26 30 29 28 24 25 23 22 21 24 20 18 21 20 22
31 28 28 29 29 27 29 29 29 27 27 26 22 18 19 21 19 22 28 26 20 22 19 22 20 15 18 13 15 11 16 16 16 26 22 29 35 36 31 30 21 24 28 32 23 26 26

GFSGBSN_700_spd_141.txt.gz
Wind_Speed
40 40 39 38 38 38 37 36 36 34 34 32 31 30 26 25 25 25 26 26 26 25 24 25 24 24 23 21 21 18 15 15 14 12 12 12 11 11 10 10 10 10 16 16 12 19 23
44 42 42 41 41 41 40 39 38 36 35 33 31 30 28 27 28 29 29 29 27 25 25 26 25 26 24 21 21 15 12 13 13 12 11 11 13 16 14 16 15 17 17 20 22 20 21
47 44 43 43 45 45 43 42 40 38 37 36 34 33 33 33 32 31 30 31 29 28 27 29 27 26 24 20 21 18 15 12 12 11 10 13 13 13 16 14 20 19 22 23 20 22 23
50 47 45 48 46 50 52 46 42 43 40 39 38 37 37 36 36 34 32 32 31 30 30 28 27 27 25 24 21 22 21 19 18 15 14 16 14 14 16 16 16 15 15 19 9 8 16
47 47 48 50 55 55 44 45 48 51 44 42 42 42 38 37 38 35 34 35 34 30 29 27 27 30 28 26 25 26 25 24 22 18 15 17 19 17 17 14 13 12 14 14 12 12 21
30 30 40 45 54 58 49 48 50 47 46 46 42 45 42 39 39 39 37 34 34 35 32 28 31 31 25 26 28 24 15 13 14 14 14 16 16 16 15 14 12 10 14 20 17 5 17
34 34 32 33 32 44 43 43 41 38 19 23 31 38 42 46 44 43 39 40 38 38 38 32 31 33 32 29 24 20 18 18 20 21 17 15 17 22 18 16 10 15 22 25 21 20 12
34 41 45 39 35 36 36 31 30 29 26 38 39 29 23 25 27 33 33 32 39 40 42 38 38 37 28 30 28 22 21 17 18 17 14 17 24 19 14 14 21 22 22 24 25 25 21
23 23 27 41 38 41 40 43 46 47 46 35 23 21 22 18 27 19 25 26 32 25 35 44 33 37 28 32 36 27 26 22 22 20 21 25 21 5 19 19 21 22 23 22 24 26 24
25 28 25 23 19 19 23 22 20 20 16 15 15 21 19 19 19 20 15 17 14 13 19 30 24 25 23 28 36 29 29 27 28 27 23 23 23 24 19 22 21 28 19 20 23 20 15
25 26 26 27 24 21 20 19 16 17 22 15 14 19 22 24 21 18 19 8 8 8 5 4 14 9 14 22 20 15 21 30 34 29 18 26 10 18 28 28 20 23 17 22 23 16 20
29 31 33 32 31 29 25 24 23 22 24 17 17 16 18 23 24 21 12 11 11 6 10 7 10 9 14 16 22 13 21 34 33 32 31 30 27 22 17 19 24 25 19 19 16 13 11
38 33 36 34 35 35 27 31 29 30 31 23 21 19 19 22 24 28 23 18 11 10 5 11 10 11 13 15 22 17 19 28 30 22 32 35 38 34 28 20 15 18 14 2 4 6 8
39 41 41 29 33 36 38 32 29 28 28 28 21 22 21 19 21 15 14 20 14 15 24 9 7 11 10 16 14 20 20 18 20 20 10 15 13 30 33 35 27 24 19 13 5 4 5
41 41 42 42 38 30 30 34 26 29 27 24 28 26 25 22 19 17 21 30 16 23 8 3 19 13 17 13 21 19 23 21 13 24 13 8 20 16 21 27 24 21 28 22 25 18 1
40 42 43 42 40 41 34 29 31 28 29 28 25 30 28 23 24 26 30 39 34 20 4 11 8 8 24 21 20 19 23 11 22 19 24 16 14 13 19 24 16 23 15 10 5 2 4
36 40 43 43 43 43 40 37 31 29 31 26 27 30 33 27 25 24 39 42 29 34 15 7 16 17 15 10 7 11 4 12 12 11 15 14 7 14 4 17 14 11 14 19 12 7 4
28 34 40 45 44 41 42 41 36 34 33 31 36 37 31 32 30 35 38 42 38 20 19 19 20 16 19 13 10 9 4 2 8 9 11 4 8 5 15 5 9 16 10 11 14 9 11
26 28 31 38 44 49 43 39 40 37 38 37 40 41 41 35 36 36 38 38 37 33 25 20 23 22 22 19 10 13 9 8 14 13 5 4 5 5 15 20 18 11 7 7 17 19 26
27 27 28 30 37 43 46 43 43 41 41 41 48 45 32 36 38 41 38 37 37 27 33 29 21 23 20 23 26 18 24 8 12 13 13 11 14 13 9 17 21 27 24 19 20 20 23
29 28 27 28 29 34 46 44 46 46 44 47 45 45 46 33 44 44 41 41 38 41 30 25 20 23 17 15 17 25 31 20 16 16 16 17 22 25 27 30 28 24 27 28 29 28 25
26 28 28 28 29 28 36 45 41 41 44 44 49 42 42 57 46 44 42 39 38 26 25 24 25 25 17 21 18 21 18 18 22 18 27 24 26 21 24 24 18 19 26 35 36 33 32
25 26 27 29 28 28 28 39 46 45 43 47 53 55 49 42 51 43 42 43 39 24 20 25 26 30 27 23 23 24 26 21 22 19 15 17 24 16 28 15 13 16 36 34 38 31 28
25 25 25 28 29 28 27 29 38 46 42 51 53 58 41 33 42 52 44 36 34 33 26 24 26 26 29 26 30 29 26 23 23 23 22 14 13 13 14 15 5 32 33 27 22 23 25
25 26 25 26 28 27 26 27 30 36 40 47 46 35 63 47 45 49 47 34 26 27 24 26 28 27 9 20 19 20 20 24 30 30 26 24 23 22 17 21 24 41 37 27 20 27 28
27 26 24 24 26 26 23 28 28 30 37 42 38 27 32 48 33 46 50 31 29 32 30 26 21 18 21 19 19 16 13 16 10 16 27 30 31 32 29 17 7 58 33 20 14 31 25
29 29 26 23 24 24 24 26 23 27 23 24 29 32 30 22 35 42 40 35 33 33 34 32 31 26 24 23 19 15 17 15 20 24 24 23 18 27 33 25 30 48 41 26 23 33 28
30 31 28 25 22 20 21 17 18 21 23 17 19 20 24 29 17 34 23 39 38 27 32 26 29 26 23 23 20 14 15 19 23 28 29 28 19 23 21 18 18 30 24 24 21 21 22
32 32 29 27 25 21 20 22 14 14 18 16 15 14 16 24 22 21 22 23 25 30 33 27 31 23 29 19 22 16 14 11 12 15 15 19 24 24 24 23 17 21 30 33 36 31 29

GFSGBSN_700_spd_147.txt.gz
Wind_Speed
40 40 41 40 40 39 39 37 37 36 36 36 35 34 33 32 32 31 29 29 28 27 25 26 25 24 21 18 14 17 15 14 13 12 12 13 14 14 14 14 19 25 22 22 22 20 19
41 42 42 41 40 40 38 38 38 37 37 38 37 37 35 34 34 32 32 31 28 27 27 27 27 26 23 20 17 15 12 13 11 10 11 12 12 13 15 15 18 23 27 22 23 24 24
44 45 43 42 40 40 39 39 38 39 40 40 40 39 38 36 35 33 33 31 29 29 29 28 27 27 26 19 21 18 14 15 14 11 11 13 12 13 13 12 20 22 28 25 24 22 26
45 40 42 44 41 39 39 39 38 41 39 42 42 42 40 38 37 35 32 32 31 31 31 31 29 30 29 22 21 20 19 15 16 19 17 19 20 15 16 15 18 15 22 28 26 23 24
43 38 42 41 37 47 42 41 39 42 39 44 46 45 43 41 39 38 36 35 35 34 34 32 31 31 30 24 17 18 20 15 17 20 22 23 25 20 19 20 17 20 24 22 18 13 10
31 29 30 29 35 35 48 45 44 40 41 52 47 48 46 43 44 44 41 38 40 37 39 34 35 31 26 26 23 20 15 17 16 18 20 22 22 23 23 24 21 19 23 24 22 13 13
29 32 28 30 38 40 35 36 40 41 38 43 45 51 49 47 49 47 45 42 43 43 44 39 37 30 19 25 22 19 21 21 25 25 24 22 22 27 22 20 19 22 13 14 19 18 18
34 36 31 31 29 31 27 30 42 40 34 38 35 38 29 39 34 37 26 28 38 42 47 49 47 47 39 34 40 35 32 27 27 28 26 27 34 26 22 20 19 21 24 24 25 22 19
36 32 34 35 33 32 36 35 26 32 35 23 33 27 27 38 31 24 17 14 9 15 29 40 37 47 41 39 46 38 36 32 29 29 26 31 24 14 23 22 22 24 24 24 23 21 26
28 27 32 29 31 40 34 39 40 36 40 47 42 46 26 27 32 23 22 18 12 20 21 26 20 22 24 30 46 39 38 37 34 32 26 29 32 33 25 24 25 31 23 23 21 22 18
25 30 33 25 25 29 24 22 20 23 25 25 31 46 29 26 27 41 17 14 14 11 6 6 8 8 11 19 26 17 29 39 40 36 30 26 20 22 31 32 26 33 21 17 21 25 24
29 31 32 27 28 26 23 20 25 21 17 15 16 15 18 19 19 16 13 12 16 5 8 5 7 8 12 14 19 14 18 32 39 40 37 41 36 23 19 17 18 22 18 18 21 18 13
31 31 31 30 31 30 26 28 32 25 21 21 23 18 18 23 23 23 25 26 14 9 6 9 12 12 11 11 19 17 16 20 27 24 40 42 47 44 35 29 19 15 16 4 5 4 10
33 34 34 38 34 34 31 30 32 31 25 26 28 25 22 24 21 24 29 27 14 13 27 17 16 17 20 16 17 20 23 23 25 28 13 10 12 18 31 41 41 33 26 15 7 5 8
33 35 37 39 40 35 37 29 32 31 29 24 25 27 23 24 24 21 27 28 18 13 14 23 21 19 20 20 16 11 24 27 29 27 25 10 15 19 22 20 26 37 34 36 26 11 3
32 34 35 39 42 41 44 37 30 34 29 35 32 36 34 29 28 23 28 35 30 13 13 21 23 15 15 15 16 14 14 14 30 30 19 18 25 24 14 15 18 31 30 19 21 8 9
25 28 32 36 39 42 43 40 36 37 35 34 37 36 36 33 35 31 36 39 35 20 13 15 19 17 14 11 12 17 10 12 14 17 25 25 22 16 8 8 10 22 26 24 18 22 8
15 17 22 29 33 37 40 42 43 41 33 37 31 37 41 39 37 40 40 40 33 23 33 19 18 18 10 9 8 7 13 14 15 15 12 12 9 14 19 19 9 7 20 22 12 5 4
17 17 18 19 21 28 35 38 40 42 37 33 29 33 34 36 45 44 43 42 37 29 24 25 27 23 22 15 8 7 8 11 7 3 7 16 7 8 8 16 16 10 7 7 6 3 6
19 19 20 21 21 22 25 31 37 38 37 32 32 23 38 40 42 40 42 44 39 36 34 30 27 22 17 22 18 15 7 14 6 11 6 7 9 11 9 6 7 9 13 10 7 6 6
21 22 24 25 26 27 27 27 31 37 35 35 39 27 24 36 42 36 33 31 37 38 29 24 30 35 28 24 25 24 27 27 19 18 14 13 16 13 15 15 14 17 20 22 22 23 15
23 23 24 26 29 30 31 31 31 32 38 39 41 40 44 31 37 42 41 42 39 41 36 29 28 24 22 33 32 20 17 15 21 21 20 25 31 27 33 33 28 20 27 24 21 24 29
22 23 24 24 25 27 29 32 32 30 29 42 43 44 28 21 42 31 39 43 44 43 44 39 35 29 30 33 29 31 25 21 18 18 16 19 20 21 21 21 19 13 29 26 25 24 23
23 24 25 25 25 25 26 28 30 29 31 33 44 45 44 45 31 23 30 40 43 41 40 38 29 25 25 25 29 25 24 28 25 25 20 17 14 15 13 11 6 19 21 18 13 8 11
19 22 25 25 26 25 25 25 26 29 29 33 34 41 47 40 39 47 45 35 36 45 41 33 25 19 17 21 18 24 25 22 28 28 28 25 17 15 11 17 20 33 30 20 12 24 25
21 22 24 26 26 26 25 25 25 24 28 32 34 31 41 44 38 25 37 24 31 37 38 33 28 25 25 20 23 21 14 22 10 11 22 25 23 23 17 7 6 33 22 13 9 27 29
23 24 23 24 26 25 24 25 24 23 25 29 33 32 31 42 52 49 39 37 33 36 38 33 35 30 33 27 26 22 21 17 14 14 12 17 20 22 25 16 19 38 30 21 17 29 15
35 26 26 25 26 24 25 24 22 21 23 25 30 30 30 36 46 40 38 37 47 33 39 36 35 40 37 31 29 15 17 23 24 22 19 19 18 22 19 17 17 26 19 20 19 20 14
31 28 26 21 23 25 26 24 20 18 24 21 30 25 23 30 31 40 40 32 35 36 39 34 42 33 38 31 32 25 20 17 26 24 23 20 24 18 19 23 21 22 21 21 22 25 26

GFSGBSN_700_spd_150.txt.gz
Wind_Speed
38 37 37 38 38 37 38 37 37 38 38 37 35 34 35 34 33 32 31 31 30 30 30 31 28 28 26 23 18 21 17 17 15 13 12 12 12 12 13 12 14 20 23 21 20 24 21
40 38 37 37 36 37 38 39 39 38 38 37 37 36 36 35 34 33 32 32 32 31 33 31 29 29 27 24 20 17 15 15 15 13 12 11 11 10 13 13 16 18 22 25 24 22 26
41 38 42 37 37 37 39 40 39 38 38 39 38 38 36 35 35 34 32 32 33 34 35 31 31 30 29 22 22 18 19 17 16 14 14 13 11 11 12 11 16 19 23 24 26 23 24
36 34 36 33 38 38 39 39 39 39 39 39 39 39 37 36 36 35 34 35 34 35 33 33 33 33 32 26 23 21 23 18 18 19 18 17 18 16 15 16 19 17 19 22 23 25 25
41 37 36 34 37 36 38 43 41 38 39 39 39 41 39 38 38 37 36 37 35 36 35 35 37 33 33 25 22 19 19 18 19 21 22 22 23 21 18 23 20 20 21 22 18 14 21
35 39 39 34 33 23 31 40 32 44 41 42 40 40 41 42 42 37 37 37 38 38 40 39 40 36 29 25 22 23 17 15 15 17 20 21 21 22 21 25 23 19 22 22 20 17 19
40 34 24 25 29 33 24 23 28 28 43 45 36 42 40 40 48 45 46 45 38 42 46 45 40 34 25 29 26 18 16 20 17 19 22 24 24 25 22 20 21 24 23 22 20 16 23
35 39 39 35 24 22 22 20 21 26 30 33 38 36 32 29 33 34 40 40 39 40 43 43 44 48 40 41 44 37 33 37 32 30 26 26 33 25 24 24 25 25 26 27 25 21 24
28 30 30 31 32 29 27 26 25 25 28 22 24 34 25 24 17 20 24 28 31 35 39 49 43 45 38 39 45 43 40 42 37 35 33 34 30 21 21 26 28 29 29 27 26 24 26
33 33 30 31 30 31 28 30 33 31 31 33 30 28 28 32 31 23 16 18 14 24 25 33 29 29 25 29 40 36 40 43 42 40 33 31 31 31 31 26 21 29 27 24 21 18 17
33 32 32 30 27 25 24 29 35 38 34 31 30 29 28 33 39 30 29 24 23 25 5 7 9 13 12 17 23 18 19 41 47 43 34 28 20 20 25 34 31 34 26 21 21 19 23
28 28 28 29 33 27 21 24 24 23 23 21 21 24 24 24 26 25 20 17 16 6 7 7 7 9 10 12 19 18 13 28 32 41 38 37 36 21 18 14 14 17 13 17 22 21 13
29 28 29 36 34 32 30 31 26 20 21 22 18 17 16 16 20 19 21 23 11 10 9 11 16 18 17 16 16 17 14 21 26 21 38 40 45 42 35 26 15 13 7 3 5 5 9
32 31 32 35 41 35 30 29 29 27 25 24 19 22 23 19 19 21 26 26 15 10 21 12 16 19 21 19 18 17 17 18 19 26 22 11 13 16 31 42 45 40 28 13 7 5 5
34 35 35 35 35 37 36 34 30 29 32 27 28 30 29 26 22 25 23 28 21 28 16 26 19 17 22 24 18 20 26 26 27 27 25 9 12 13 17 9 14 28 36 34 22 4 1
32 33 35 36 37 39 39 39 28 30 32 24 27 29 27 28 25 24 23 35 33 21 18 17 17 12 10 13 17 14 13 11 23 31 25 15 18 19 19 17 14 22 16 17 20 8 13
27 29 32 34 36 38 42 44 34 33 30 26 24 30 31 26 26 25 34 40 39 31 19 14 16 15 12 7 11 9 5 9 8 13 24 22 22 15 8 4 12 15 27 26 15 26 7
19 23 28 31 33 36 38 39 40 43 37 31 28 29 37 33 34 38 42 43 41 37 29 17 16 18 18 11 4 4 3 8 6 8 10 19 14 19 19 23 23 14 13 21 21 11 9
13 14 15 18 23 29 34 37 39 40 39 38 31 35 27 32 41 45 42 46 45 41 32 31 29 22 18 14 7 13 3 5 6 6 6 10 7 7 3 10 14 7 4 6 4 7 6
16 16 16 16 16 16 19 24 31 35 35 33 34 22 34 32 41 40 47 46 46 44 31 28 25 31 29 20 22 13 15 7 6 5 4 7 7 4 4 4 6 12 13 8 8 4 5
17 17 17 17 18 19 19 20 21 25 30 29 27 36 20 20 47 43 37 43 47 43 33 30 31 27 19 22 17 26 24 24 23 17 16 14 9 11 14 12 14 17 19 19 19 20 14
20 21 21 22 23 24 25 26 25 26 26 28 31 34 31 48 16 41 40 41 40 37 34 33 32 25 23 30 33 29 22 16 18 20 17 23 30 28 24 25 26 28 32 31 30 29 29
22 23 23 23 23 23 25 27 29 29 29 29 33 35 39 27 35 35 40 31 38 35 33 32 32 26 26 30 19 22 20 27 25 19 18 20 21 24 21 19 15 10 25 20 21 20 23
23 23 23 23 24 24 24 25 26 27 28 29 30 30 37 39 44 32 23 26 36 39 33 28 25 26 29 28 28 26 30 29 23 28 24 20 19 23 16 10 5 12 17 14 16 14 13
24 24 24 24 23 24 25 25 25 25 25 28 29 29 30 38 39 47 47 39 27 17 29 35 31 30 21 16 18 19 19 22 28 26 27 23 21 20 15 15 19 30 30 25 27 23 21
23 22 21 22 22 23 25 27 26 24 23 26 30 30 31 31 37 40 32 28 41 37 29 24 28 28 28 19 21 17 13 19 11 15 28 26 26 22 18 5 5 37 22 15 15 21 25
24 24 22 20 19 20 25 27 26 24 25 26 27 29 31 34 36 31 34 37 25 28 23 19 17 25 24 29 24 21 22 17 20 19 14 21 28 28 27 14 21 31 21 19 16 34 22
32 32 31 26 22 23 24 26 24 24 23 25 26 26 30 35 39 35 33 37 44 32 27 33 21 26 31 31 32 21 18 22 23 21 20 19 15 24 20 14 14 22 19 21 21 20 21
34 32 31 29 32 26 24 24 24 23 21 23 26 27 24 29 38 36 35 35 37 44 40 32 35 32 26 25 30 23 21 15 27 25 29 30 31 22 21 20 17 18 21 21 20 20 22

GFSGBSN_700_spd_153.txt.gz
Wind_Speed
37 37 35 35 36 36 36 35 35 36 36 35 35 35 34 33 32 32 30 29 29 29 29 29 29 29 27 23 19 20 20 19 19 17 14 14 13 12 13 13 13 16 16 17 16 20 21
42 40 37 36 34 34 34 35 35 36 36 37 36 36 35 33 32 32 30 29 28 31 31 30 30 30 30 26 22 16 16 17 18 16 15 14 13 11 13 12 13 17 17 16 20 20 21
36 43 39 39 38 36 35 35 35 36 37 37 37 36 36 34 33 32 30 29 28 31 33 33 32 33 33 25 25 22 19 18 18 18 17 16 13 12 10 10 14 18 18 20 20 19 23
33 38 37 40 36 38 36 36 36 37 37 37 37 37 37 36 33 31 30 30 30 31 34 35 35 35 36 26 25 24 23 21 19 21 19 19 18 17 16 15 18 17 18 19 14 15 22
36 36 36 35 33 33 34 40 40 37 39 37 38 38 39 36 34 31 30 32 33 32 36 36 36 33 35 25 19 17 17 20 21 20 22 21 22 22 21 22 20 20 17 20 18 15 17
32 22 34 40 37 28 30 29 26 34 38 39 40 39 38 37 36 36 37 38 37 34 35 33 37 32 26 22 24 23 18 16 14 17 20 18 19 22 24 24 22 19 19 19 18 16 18
43 46 38 31 33 36 33 18 15 14 24 33 33 39 42 37 34 34 35 36 36 38 36 35 32 33 25 23 26 27 22 15 16 22 22 19 22 27 23 21 21 22 23 22 21 21 22
29 32 33 34 43 38 31 33 24 21 17 17 20 25 29 31 30 33 36 33 33 34 40 40 38 42 36 35 40 36 34 36 34 33 30 31 36 26 26 27 26 23 24 25 24 23 26
33 34 31 32 35 37 36 30 28 22 22 25 15 22 22 19 25 25 24 25 22 26 34 41 34 40 31 35 40 35 39 40 39 39 38 36 32 27 25 26 30 29 29 28 27 26 30
30 29 29 24 27 27 31 29 30 29 29 29 25 24 20 19 22 19 22 23 24 19 21 26 18 17 20 28 38 29 33 40 41 38 39 33 31 34 34 33 31 33 27 25 23 19 14
34 28 30 28 26 24 29 31 30 28 27 29 28 30 27 23 26 25 22 21 22 18 7 7 5 5 6 12 17 15 16 31 39 38 28 26 18 17 21 29 30 30 21 16 14 18 25
31 33 29 38 35 34 35 35 42 30 26 25 28 33 30 27 29 28 22 21 21 7 8 5 7 7 8 12 13 13 12 18 23 34 36 36 29 21 21 17 17 20 12 13 17 15 13
32 29 28 28 29 25 27 26 22 25 23 21 19 18 19 22 23 22 24 21 13 10 7 7 15 16 15 14 15 16 16 19 20 16 26 31 39 35 29 20 14 19 12 4 6 6 9
32 31 30 27 28 30 33 27 30 26 20 19 22 20 18 17 16 18 21 22 14 11 24 12 10 15 20 20 18 19 19 20 22 25 16 9 9 12 31 39 39 31 28 16 7 8 14
33 33 31 31 31 38 30 29 32 37 32 27 27 27 24 18 20 19 21 27 19 25 14 23 19 12 16 19 15 12 20 23 24 24 17 9 10 15 16 8 20 25 31 35 23 18 10
33 33 34 33 33 35 44 37 37 31 32 31 30 28 29 24 30 28 26 32 28 23 18 22 11 9 9 13 14 10 9 6 16 27 19 11 11 15 16 13 13 21 7 12 18 9 16
28 29 31 33 34 35 35 36 41 31 32 25 29 29 33 28 35 34 38 39 36 34 23 19 19 16 14 11 12 10 5 7 8 11 17 24 18 11 7 7 15 17 19 18 10 21 7
23 24 30 26 29 33 34 35 37 41 45 28 23 33 32 29 31 35 40 39 34 29 29 25 28 19 19 11 10 9 6 6 3 8 10 16 11 13 16 21 18 12 10 13 14 13 9
14 17 22 26 29 30 30 31 33 35 37 38 31 21 18 24 32 38 33 35 32 34 33 24 28 24 14 10 12 20 9 4 4 9 7 9 7 6 6 9 11 10 6 9 10 16 22
13 13 14 14 16 19 24 29 33 33 30 30 32 26 29 23 29 34 35 37 38 38 40 33 30 30 27 29 24 9 18 16 8 2 5 5 3 5 5 4 3 6 6 7 7 4 6
16 16 16 15 15 15 15 15 17 20 27 30 25 26 28 19 38 36 31 26 36 38 35 32 31 32 29 28 28 27 19 18 17 17 15 13 11 14 15 13 14 17 22 22 21 24 16
18 18 18 18 17 17 17 18 18 18 19 20 24 28 28 28 34 27 10 30 34 37 35 35 37 35 32 31 27 20 16 14 17 11 11 18 18 15 19 13 15 20 25 21 25 29 29
20 21 21 21 21 21 22 22 23 23 24 24 24 26 27 29 27 32 40 30 17 17 29 35 35 31 34 32 23 20 22 22 16 12 10 14 20 15 13 14 9 12 28 19 17 17 16
23 24 24 24 24 23 22 22 22 22 23 24 26 25 26 33 33 32 35 30 27 20 25 27 27 29 26 23 24 23 27 25 25 27 25 26 21 23 16 10 8 14 16 14 14 14 13
25 26 25 24 23 23 22 22 22 21 22 23 23 24 26 31 31 34 37 38 33 32 22 19 36 29 22 25 24 23 26 25 32 30 29 27 25 23 16 15 14 29 29 23 25 25 22
25 25 25 25 24 22 21 21 22 22 22 24 23 23 23 25 32 30 30 33 40 42 41 35 16 11 25 27 30 18 15 17 10 11 27 24 24 24 17 5 6 33 21 16 13 27 21
27 25 23 22 21 20 20 19 20 21 21 22 24 21 21 26 33 30 29 29 30 37 25 12 22 23 17 24 25 19 18 18 13 13 11 28 30 31 28 19 19 30 17 8 11 14 12
24 23 23 22 22 19 19 18 17 20 21 23 26 23 23 27 30 30 29 31 28 28 33 28 23 26 19 26 15 15 12 23 18 17 22 23 18 21 17 14 17 21 14 14 12 14 14
32 31 29 28 28 27 25 22 18 20 20 22 27 23 22 27 32 29 28 31 33 30 31 39 27 14 13 15 19 20 18 17 24 15 24 27 28 22 20 25 17 15 16 20 23 18 15

GFSGBSN_700_spd_159.txt.gz
Wind_Speed
37 37 37 36 36 36 35 36 37 38 37 38 37 36 35 36 35 32 30 30 30 29 30 32 30 28 23 22 21 24 22 23 23 21 19 18 16 12 13 12 15 20 18 16 16 16 15
36 38 38 39 37 35 34 36 36 37 39 40 37 38 38 37 35 33 31 31 31 31 31 31 32 29 29 24 23 24 23 23 24 22 20 18 16 17 18 15 16 15 17 17 18 18 18
42 40 36 40 38 39 36 37 37 38 40 40 40 39 39 38 36 34 33 31 31 33 33 31 30 32 34 20 25 27 27 27 27 24 22 21 20 17 11 11 16 19 20 18 20 19 20
49 45 38 43 36 37 37 40 41 42 42 42 42 41 40 39 37 35 33 32 32 33 33 33 31 33 42 23 29 28 30 28 27 25 24 23 21 20 20 16 19 18 18 21 15 12 16
55 56 50 43 37 40 43 42 45 46 46 45 44 44 41 39 37 35 35 34 34 34 35 33 33 35 41 28 26 25 24 24 25 23 23 25 24 21 16 17 18 18 23 21 16 12 11
40 40 49 49 33 29 37 40 42 46 51 47 46 43 42 40 39 36 35 34 34 36 36 34 35 35 31 25 27 27 21 18 17 15 15 20 21 18 17 19 23 21 20 18 19 17 15
39 38 34 47 35 33 27 33 33 30 28 38 42 44 38 36 37 35 33 32 34 39 42 38 33 34 24 25 20 18 17 18 19 20 19 16 17 24 19 21 22 24 22 23 23 21 17
42 42 40 42 40 35 32 26 28 23 24 22 19 11 20 32 35 36 32 32 35 38 41 42 38 42 33 34 35 32 28 26 24 22 16 19 27 23 20 21 21 21 23 24 26 24 25
43 43 43 44 40 42 42 43 45 35 18 23 26 15 14 14 23 28 27 24 24 25 34 36 34 35 32 34 37 34 30 30 27 23 25 30 24 14 24 26 26 26 28 27 27 25 28
41 41 42 43 38 34 33 38 40 34 28 26 28 28 24 21 17 17 19 15 15 14 13 19 20 25 26 29 33 29 33 33 29 32 28 34 31 33 30 30 24 31 23 25 23 22 26
38 35 35 34 31 31 30 29 31 34 34 29 30 29 27 27 26 22 21 19 15 9 6 5 14 13 14 20 13 12 28 31 34 29 21 30 17 22 28 34 30 34 24 22 22 23 27
41 42 42 40 40 37 33 34 35 34 33 34 34 34 35 34 30 26 23 23 19 10 9 7 7 11 10 13 11 9 11 22 22 30 31 32 27 20 19 19 22 21 21 18 18 19 22
39 38 41 40 38 36 31 32 32 37 39 38 31 30 29 26 28 28 27 21 11 8 5 8 6 11 11 8 12 12 10 16 15 13 25 27 34 31 25 19 17 19 21 15 15 13 18
46 41 36 42 43 41 37 31 25 19 17 21 21 20 21 23 18 23 18 19 12 13 23 8 4 7 12 12 14 14 15 19 21 18 15 14 17 20 26 27 20 19 27 17 11 14 17
30 39 38 30 28 37 29 18 14 14 16 19 24 20 22 21 18 19 18 27 16 18 18 14 11 11 13 15 10 12 19 19 18 17 14 9 14 5 11 18 21 22 28 26 23 23 13
30 28 24 22 25 26 24 20 19 17 18 30 25 27 28 23 22 22 25 34 27 20 22 20 18 11 15 22 18 17 16 13 18 16 13 12 15 13 9 10 17 27 9 17 16 6 12
26 27 25 23 23 25 24 23 31 30 32 29 28 27 28 27 28 28 34 41 34 24 26 16 19 20 17 17 15 16 15 5 9 8 8 14 19 16 11 14 20 16 26 18 16 25 9
22 22 25 23 23 26 27 28 30 35 29 45 42 34 30 33 29 34 38 38 32 24 22 26 24 22 18 17 16 13 16 13 6 9 9 12 12 20 25 17 13 16 17 26 24 19 23
18 19 20 22 26 23 26 30 32 35 40 32 26 25 28 31 34 41 44 44 37 23 23 20 22 24 23 24 21 19 18 23 24 18 11 12 10 16 23 19 17 17 12 13 14 14 24
12 13 16 19 20 21 25 21 27 30 33 31 33 27 22 23 34 22 30 37 39 39 23 23 18 23 20 25 22 20 18 19 22 22 20 17 17 16 16 7 7 4 8 8 8 10 18
13 12 12 12 13 18 20 21 24 24 23 23 22 22 29 23 25 22 15 9 8 30 24 30 30 29 21 24 25 26 23 18 17 18 20 14 19 20 21 19 16 18 17 15 17 18 15
16 16 15 15 14 14 14 17 17 19 23 26 29 29 25 16 20 30 9 8 20 11 5 12 26 21 22 30 26 27 26 28 28 22 23 20 20 18 23 20 21 20 24 20 23 26 25
19 19 19 18 18 17 16 16 16 16 18 20 19 15 22 23 26 25 33 30 31 26 22 14 10 19 24 20 25 29 24 30 26 21 25 26 22 22 24 22 22 21 29 25 30 27 27
20 20 20 19 19 18 18 17 16 16 17 16 16 17 14 18 15 16 15 18 19 19 26 25 28 26 14 21 27 29 28 25 21 27 21 24 27 26 22 16 16 25 22 21 17 20 22
23 23 23 22 21 21 20 19 19 18 18 18 19 19 19 19 14 16 19 18 17 19 25 27 26 24 29 28 18 13 21 26 37 31 30 29 29 26 25 24 25 19 23 17 19 20 21
24 25 26 25 25 24 23 22 21 20 18 19 19 18 17 17 15 15 14 15 18 19 20 27 27 26 24 21 20 20 12 14 17 25 44 38 35 33 14 21 19 29 24 15 13 23 19
27 27 26 25 25 25 24 23 21 20 20 18 14 16 18 19 18 12 9 11 12 13 17 16 16 19 23 29 29 31 32 27 24 25 25 42 39 39 37 33 29 31 19 10 17 14 11
29 29 29 29 27 26 25 24 22 21 20 19 16 14 17 21 19 16 14 15 15 15 17 14 13 19 21 26 30 27 25 30 30 29 33 34 36 40 39 34 27 22 19 28 22 13 14
31 30 30 29 29 27 26 25 23 21 20 18 17 14 16 19 20 21 20 20 21 20 21 20 23 22 12 19 17 22 22 15 31 34 33 32 32 35 31 37 16 18 18 19 19 17 15

GFSGBSN_700_spd_162.txt.gz
Wind_Speed
36 36 34 32 33 35 36 37 37 38 36 36 38 37 37 36 36 36 37 36 32 33 33 33 33 31 27 27 22 29 24 22 22 22 22 20 18 14 16 14 15 20 22 23 22 21 19
38 38 35 35 36 36 36 36 37 38 38 38 38 39 39 39 38 37 37 38 35 34 35 34 34 33 34 30 25 29 26 25 22 23 23 23 19 16 24 19 19 20 22 22 21 22 21
46 37 40 40 36 36 38 38 38 38 38 39 40 40 40 40 40 39 38 38 36 36 34 36 36 36 40 25 24 26 29 26 25 26 26 24 19 23 14 15 13 18 23 23 24 25 25
44 39 42 42 37 39 36 42 40 41 40 40 41 41 41 41 41 41 41 39 38 37 37 37 38 39 49 23 28 28 28 30 30 29 30 25 24 28 23 23 25 19 21 26 22 21 25
42 45 44 43 43 38 38 38 40 43 46 45 44 44 43 42 43 42 42 39 39 39 38 36 37 40 49 29 31 28 30 29 26 28 28 25 29 30 22 19 20 18 25 23 23 20 18
45 43 42 43 47 49 50 35 41 44 45 47 47 47 47 44 44 43 42 39 38 40 39 39 38 35 29 18 21 29 27 25 23 19 19 21 27 27 24 23 27 19 24 25 21 13 18
43 44 46 43 45 42 51 53 34 36 35 38 34 41 40 38 43 38 39 37 39 39 42 41 38 37 23 23 30 22 22 25 22 21 24 23 22 27 26 23 22 23 26 28 23 21 19
47 45 42 42 42 43 38 38 42 33 32 34 31 30 35 36 42 41 39 36 33 40 45 47 45 45 43 34 26 22 22 27 25 29 22 21 32 25 22 21 23 24 24 25 25 23 26
49 45 45 44 43 43 43 41 45 35 28 30 12 11 15 15 17 26 32 36 42 38 43 52 48 46 43 36 43 33 27 27 25 23 25 31 22 25 24 25 25 27 26 26 27 25 29
49 47 45 47 45 44 42 40 43 45 45 34 33 26 25 24 18 17 20 23 26 29 18 33 23 28 27 25 35 35 38 32 30 33 27 33 27 31 30 26 20 31 24 26 26 26 26
47 44 44 46 46 45 45 45 40 34 33 30 38 31 25 19 23 25 22 21 17 12 4 2 16 18 20 31 16 11 17 35 42 34 27 41 26 21 33 35 30 38 28 27 26 23 27
35 36 38 37 43 40 39 39 36 33 32 29 28 30 25 22 26 27 27 24 19 10 9 9 8 12 14 20 22 9 14 21 29 29 33 38 30 28 18 21 21 22 25 27 24 19 23
41 42 45 45 44 40 38 36 38 39 32 35 33 33 33 33 34 33 29 25 16 10 11 13 8 11 13 11 17 14 7 13 21 22 30 34 39 36 31 28 21 17 16 13 13 13 14
36 30 29 38 44 43 43 39 34 42 42 38 39 40 39 40 37 36 32 21 12 12 14 6 9 9 13 13 11 12 15 15 21 20 18 18 17 27 23 38 29 21 22 16 10 11 16
44 46 38 38 28 34 39 36 31 29 29 28 23 24 24 27 21 20 23 22 17 18 9 11 17 12 14 14 12 12 18 19 20 20 23 11 15 7 13 16 25 26 29 25 32 31 14
36 33 23 26 28 20 28 18 17 4 19 15 20 21 26 20 18 20 26 32 28 18 12 8 10 9 10 15 17 19 17 6 17 19 18 14 16 14 6 13 14 20 21 9 11 4 9
29 26 18 14 15 16 18 18 13 11 9 16 28 27 32 32 28 31 37 37 27 29 18 12 19 21 17 19 16 20 18 17 17 8 12 10 13 18 11 11 10 16 21 24 18 11 3
18 20 20 15 15 15 18 21 18 21 19 29 24 33 30 32 35 42 44 35 27 17 21 25 24 21 16 20 19 18 20 13 17 15 9 9 8 16 20 21 18 12 14 16 23 25 19
14 16 18 20 16 15 16 20 22 29 31 32 34 37 34 33 38 40 45 41 32 21 20 20 20 19 20 18 15 19 19 15 20 17 8 7 5 11 18 26 16 10 20 16 18 13 20
13 13 14 16 17 15 15 19 25 25 29 31 20 18 15 27 33 24 37 33 31 32 32 26 25 21 23 26 28 28 28 22 30 30 33 21 20 22 20 15 17 18 24 12 9 7 13
10 9 10 10 12 14 16 15 18 24 31 26 18 18 24 19 22 20 13 15 20 21 24 31 32 32 20 28 26 32 30 28 25 22 25 21 22 22 22 22 27 29 28 28 30 30 21
13 12 11 12 12 11 10 13 16 19 22 27 29 24 14 9 11 23 18 10 16 9 5 11 23 21 30 25 23 16 24 29 30 24 22 20 20 19 24 24 25 23 21 26 23 27 27
17 16 16 15 15 15 14 12 12 15 20 21 26 31 34 26 11 18 28 27 23 14 14 16 14 11 19 8 18 22 28 32 32 27 23 27 24 24 28 23 24 27 39 29 29 28 29
20 20 18 18 18 17 17 16 15 14 14 14 16 14 8 10 12 14 15 18 26 28 32 31 25 30 27 23 22 17 23 32 26 27 25 23 28 26 22 18 16 35 27 27 29 29 27
23 22 21 19 20 19 19 18 17 16 16 16 18 20 16 16 12 12 13 15 13 11 14 16 17 15 20 21 30 20 15 20 26 30 28 29 28 28 26 21 26 15 22 23 24 22 23
25 25 23 22 22 21 20 20 19 19 18 18 20 18 18 16 14 13 13 13 14 14 15 17 15 15 19 23 19 9 9 11 15 22 38 35 34 36 22 13 17 40 33 26 24 18 20
24 24 24 25 25 24 23 23 22 21 20 19 20 17 18 19 19 11 5 7 9 10 14 13 9 12 14 19 20 21 20 19 13 13 16 38 44 39 36 30 30 31 19 20 17 26 16
26 26 27 27 26 25 25 24 22 21 20 20 17 16 14 17 16 12 12 16 15 11 12 11 10 15 19 18 15 21 22 27 30 38 33 32 24 41 44 29 27 46 29 29 34 15 18
23 25 29 28 27 27 26 24 22 22 21 20 20 18 19 18 14 16 18 19 21 22 20 18 20 19 14 12 13 15 18 23 25 30 37 40 41 26 22 41 41 28 29 30 27 25 18

GFSGBSN_700_spd_165.txt.gz
Wind_Speed
41 39 37 37 36 36 37 38 36 36 36 36 36 36 36 36 36 36 35 35 35 36 35 36 36 36 32 31 19 27 24 23 23 23 22 22 23 22 20 23 20 22 21 26 25 28 29
42 42 39 38 35 34 34 33 34 36 36 36 38 38 39 38 37 37 37 37 38 38 37 38 37 37 39 35 23 28 26 25 24 24 24 24 24 21 28 27 24 25 29 29 30 31 30
46 43 41 38 39 37 35 34 34 35 36 37 37 38 40 40 39 39 38 38 38 38 38 39 41 41 44 31 27 29 29 27 24 26 25 23 26 26 28 26 21 24 29 32 33 33 36
37 36 40 40 31 36 38 33 35 37 39 38 38 40 40 41 41 40 40 41 38 39 40 40 42 45 52 29 31 29 28 31 28 27 29 25 28 29 30 29 27 26 26 32 29 25 22
44 53 44 39 33 32 30 34 35 37 39 41 41 40 41 41 41 42 41 41 40 41 42 42 43 45 53 34 30 28 31 32 31 31 30 29 29 30 29 30 29 27 29 31 28 15 17
45 47 50 45 54 40 34 34 35 31 37 35 35 39 42 44 45 46 44 43 43 45 44 45 46 41 37 26 21 22 26 25 25 24 25 24 25 27 25 30 29 27 27 26 28 22 23
56 46 42 41 45 45 46 37 38 40 38 38 36 37 40 40 37 47 44 44 46 47 50 50 43 44 37 33 40 33 24 22 20 26 24 23 26 31 26 27 29 25 29 29 27 27 26
43 44 40 41 39 35 35 38 41 38 37 38 42 39 35 34 32 34 37 38 38 45 51 52 50 54 50 39 46 30 21 27 28 33 27 24 33 28 24 23 23 28 33 35 35 30 27
46 41 41 43 42 37 34 35 36 36 33 33 39 42 35 35 30 28 31 34 39 41 44 62 58 58 50 45 48 42 31 30 33 31 27 33 34 14 23 21 24 31 33 32 31 28 30
47 46 47 45 42 41 40 39 38 38 35 36 37 28 27 17 16 13 16 15 23 22 24 42 36 35 26 33 45 40 42 37 32 34 29 29 28 30 27 32 30 34 24 29 25 22 20
45 46 48 47 44 43 43 45 44 41 38 39 37 37 37 31 29 21 22 19 16 20 5 7 10 14 12 22 16 7 17 36 46 37 30 37 12 24 30 32 31 39 29 27 28 28 32
41 44 42 47 46 44 44 43 44 42 38 37 38 33 27 33 33 23 22 21 21 12 10 7 14 12 15 17 18 5 9 21 31 42 42 39 33 31 28 27 22 19 25 25 27 24 24
31 33 36 40 44 45 42 40 40 39 41 39 35 32 29 30 28 24 23 25 19 11 10 9 8 11 14 18 32 23 11 13 22 21 32 42 40 38 36 36 26 20 12 3 5 8 8
29 34 35 33 35 36 40 41 40 34 34 36 39 35 31 27 37 28 29 31 14 21 17 15 15 13 14 12 12 20 19 18 15 20 9 19 15 19 21 39 35 29 25 13 5 5 6
33 34 32 24 33 38 31 33 35 37 40 29 39 36 41 43 42 39 38 34 23 25 11 24 14 12 18 14 13 18 19 21 20 19 18 9 12 4 1 22 19 38 29 25 32 28 7
32 29 34 40 34 37 26 25 21 36 36 29 33 29 32 38 42 41 41 41 39 23 11 13 24 18 11 18 17 17 15 14 22 21 23 19 18 19 10 13 11 9 20 15 7 4 5
27 24 22 25 18 26 34 37 32 29 17 23 23 25 24 25 26 31 37 38 39 29 23 16 11 14 15 12 10 15 15 15 18 18 13 18 18 14 11 4 4 8 13 17 9 7 1
12 12 11 12 9 9 7 12 11 23 18 25 20 24 29 30 34 41 41 38 31 19 27 28 26 24 24 23 22 16 20 21 16 22 16 16 11 10 22 17 9 15 10 10 6 7 10
12 12 12 13 9 8 9 11 10 17 16 16 22 31 28 28 36 39 42 43 34 21 23 16 21 25 27 22 11 21 27 22 17 21 11 12 7 2 9 22 16 14 18 19 16 10 17
11 10 10 11 9 8 8 10 14 20 17 26 17 12 23 32 29 32 36 38 28 39 24 31 17 22 20 23 27 19 18 20 23 22 20 16 19 17 13 11 12 14 23 29 27 16 17
6 6 7 7 7 6 8 11 14 18 23 25 31 15 11 10 21 20 19 19 27 25 32 36 34 26 24 24 26 28 30 28 28 28 27 24 27 31 33 30 29 28 31 33 29 32 26
9 8 8 7 7 7 6 8 12 13 16 20 33 30 29 14 2 9 17 5 12 8 13 13 27 26 30 30 26 23 31 32 29 24 25 24 26 24 28 28 25 25 29 33 32 35 33
12 12 12 12 11 10 9 7 9 15 12 14 17 20 29 18 4 8 16 18 17 17 13 7 9 4 7 8 14 23 21 30 29 24 26 25 24 25 24 31 24 21 41 37 37 33 29
16 15 16 16 16 15 13 12 11 12 14 14 12 10 7 10 4 12 12 18 13 14 16 20 27 30 22 26 28 21 17 19 23 33 30 33 31 26 22 18 14 31 31 34 38 36 34
20 19 19 18 18 18 16 15 15 14 13 14 16 17 14 10 6 6 7 11 12 5 4 7 7 12 13 16 21 21 21 20 22 32 38 36 33 20 13 20 12 10 30 30 29 34 23
22 22 21 20 19 19 18 17 17 16 16 16 17 17 19 16 15 16 14 11 8 9 10 12 7 8 15 15 11 4 8 9 6 6 22 37 34 33 16 8 12 39 41 33 21 26 31
24 24 23 23 23 22 21 19 18 18 18 17 19 19 17 20 17 13 10 8 11 12 13 11 9 9 9 11 10 12 14 14 6 10 8 21 36 39 33 22 21 44 32 13 23 34 29
20 23 24 25 24 23 24 23 22 21 20 20 19 18 16 16 13 17 20 20 17 15 13 7 10 15 15 14 9 13 13 16 19 27 30 21 13 16 37 29 28 51 34 31 42 24 20
22 23 23 26 25 25 24 24 23 22 22 21 20 17 17 18 12 14 20 20 20 24 24 23 22 14 5 7 9 8 11 13 14 25 26 28 27 32 29 11 31 35 24 26 30 35 36

GFSGBSN_700_spd_168.txt.gz
Wind_Speed
44 43 43 41 40 41 40 40 39 38 37 36 36 35 36 35 34 35 35 34 35 35 35 36 35 35 34 33 22 26 26 24 22 21 21 22 21 24 25 26 27 30 30 29 32 30 30
47 46 44 43 42 41 40 40 39 39 38 38 37 36 36 36 36 36 36 37 36 37 38 37 37 37 37 36 24 29 24 23 22 23 21 21 24 27 28 29 30 32 35 32 31 34 35
52 48 46 45 43 41 39 40 39 38 39 37 36 35 36 36 36 37 37 39 38 38 38 40 41 41 42 29 28 31 31 25 24 27 22 21 24 28 30 32 27 31 32 30 30 29 35
41 49 49 48 47 43 41 40 41 37 38 38 37 37 35 34 36 37 38 39 38 38 39 42 42 45 50 32 31 29 29 31 26 27 27 23 25 30 33 34 34 35 35 37 29 24 23
31 33 40 41 40 36 37 43 41 38 36 39 40 37 35 36 35 38 39 38 37 39 41 43 45 45 51 27 23 26 28 31 31 31 32 28 29 35 34 30 35 34 36 36 34 23 18
55 48 41 38 37 34 30 31 31 33 35 33 32 35 35 35 36 38 39 40 41 44 44 47 49 47 43 32 33 30 28 27 26 27 31 31 32 34 28 27 31 32 29 28 26 13 15
51 64 47 46 49 54 49 44 32 29 26 28 27 28 26 27 29 30 34 43 44 46 50 51 47 49 44 35 29 28 27 31 30 28 28 30 33 38 30 28 30 29 30 32 25 21 28
57 53 48 50 51 42 46 53 47 44 42 35 33 33 33 33 36 37 41 44 43 42 49 54 55 59 56 48 55 47 32 32 34 36 32 32 40 35 29 26 27 26 29 29 26 20 26
47 48 46 48 53 52 47 39 28 29 29 29 31 28 28 28 32 38 40 37 37 36 41 58 55 53 50 46 56 57 39 40 34 34 35 39 40 16 18 25 29 28 29 27 32 29 29
50 47 43 43 36 35 32 32 29 29 30 27 26 26 25 22 28 31 27 25 18 9 19 39 31 28 20 24 39 35 37 46 40 40 35 34 34 35 31 29 24 30 23 29 34 28 29
49 43 47 41 40 40 35 32 34 33 34 33 28 30 29 29 29 24 14 15 15 12 4 9 10 9 12 12 13 10 11 34 53 44 34 35 13 15 27 29 26 30 23 29 35 32 30
47 44 43 46 42 39 40 39 38 37 37 35 34 35 33 36 32 29 29 24 21 11 10 7 11 12 16 12 17 16 11 18 30 47 45 42 38 32 26 25 24 21 23 22 21 23 19
34 35 41 41 40 38 41 43 43 42 41 40 38 36 33 30 32 27 30 25 17 11 11 9 13 18 17 18 18 18 18 21 20 24 43 44 51 48 38 35 29 26 24 6 5 5 12
28 29 29 30 33 40 42 42 43 43 45 31 35 36 36 34 30 29 27 27 18 22 30 14 15 18 23 22 24 26 19 20 20 26 12 22 12 27 35 46 40 33 33 11 5 4 2
38 25 29 27 26 28 31 33 39 39 35 33 39 38 36 35 36 35 34 37 25 31 16 35 16 18 24 18 15 20 34 33 27 26 21 18 12 12 10 14 26 23 35 31 20 22 6
17 18 23 26 20 34 33 36 40 43 42 48 43 40 37 43 42 39 44 46 44 30 25 21 26 18 15 25 21 20 17 17 33 26 24 17 10 18 9 9 18 17 15 16 11 4 5
15 20 22 27 24 31 22 19 26 34 33 32 40 34 40 41 36 39 45 40 47 40 33 26 26 24 26 17 18 19 12 12 26 27 33 36 22 11 18 16 20 16 18 14 12 7 3
7 5 6 11 18 17 30 21 22 26 21 14 14 25 30 34 33 38 46 44 36 22 40 40 34 29 32 25 23 17 20 12 14 18 18 24 21 24 22 13 16 12 19 26 9 7 9
9 8 7 5 5 4 6 11 9 13 14 24 29 24 17 22 34 37 33 39 40 23 19 24 34 32 30 22 17 18 22 17 16 13 12 15 11 8 9 20 17 16 16 13 11 8 9
7 7 8 6 5 7 8 9 11 12 12 7 23 13 19 22 29 26 31 39 37 42 27 30 25 23 21 24 23 12 12 10 17 18 13 17 21 14 13 8 16 19 19 18 16 14 12
5 6 7 6 6 8 10 11 14 15 16 17 24 21 19 14 25 19 20 15 23 31 25 38 27 31 31 28 27 24 24 26 23 21 20 18 23 25 28 27 25 27 25 28 30 30 26
7 6 6 7 7 6 9 11 15 16 17 19 22 24 29 22 26 15 14 5 6 9 17 16 30 21 37 29 24 22 31 29 29 23 25 24 28 27 29 31 29 27 34 40 32 34 34
9 9 8 8 8 9 9 10 12 15 15 16 18 23 28 24 19 24 26 27 19 18 13 6 7 6 7 18 21 24 28 29 33 29 30 24 26 25 25 34 18 18 46 40 42 37 34
13 13 13 12 11 10 10 11 11 13 15 14 14 16 18 18 23 18 12 11 13 14 20 21 16 20 20 23 21 17 19 27 34 38 34 28 29 21 23 14 9 38 43 45 43 39 36
16 16 16 16 14 14 14 14 14 15 16 18 18 16 13 11 11 10 7 10 10 12 11 8 5 7 9 10 14 11 11 17 25 32 32 39 35 21 16 25 26 20 40 41 36 38 30
20 20 20 19 18 17 16 16 17 17 17 18 19 19 19 16 12 11 12 9 8 9 8 5 8 8 7 7 4 3 5 6 6 5 16 27 39 33 17 7 10 33 35 21 19 23 29
21 20 22 22 22 21 19 18 18 18 18 19 21 19 17 16 15 12 14 17 17 14 11 6 9 11 11 12 7 9 9 10 6 10 9 11 26 36 34 20 16 32 15 7 21 27 22
16 19 22 24 23 23 23 21 20 20 20 20 21 21 20 18 14 17 19 18 17 21 19 15 15 18 13 14 9 9 9 10 12 19 22 12 7 8 11 25 16 21 30 27 28 30 29
21 21 20 21 24 24 24 23 23 23 23 21 22 19 20 21 15 18 18 19 21 18 19 19 19 13 15 9 10 8 9 10 12 12 17 20 26 23 13 15 15 20 22 19 16 18 26

GFSGBSN_700_spd_174.txt.gz
Wind_Speed
48 46 45 42 42 43 43 43 42 42 41 40 39 39 38 37 36 36 35 34 34 33 34 34 32 32 30 27 19 26 25 24 23 24 24 25 23 23 24 24 25 27 27 29 29 28 30
50 49 46 46 44 43 43 43 44 43 43 43 41 40 40 39 38 37 35 35 34 34 34 35 34 33 33 32 23 25 23 22 21 21 23 24 26 25 26 25 27 30 33 32 31 32 35
55 53 49 47 46 46 45 44 44 44 44 44 44 42 41 40 39 39 37 36 35 35 36 36 35 34 35 26 24 23 24 21 23 23 22 25 26 27 28 26 28 31 36 37 31 32 40
57 55 54 53 49 48 47 47 46 45 46 45 45 45 42 42 39 39 39 38 37 37 37 36 34 33 35 26 26 23 26 23 24 26 24 25 30 29 32 31 29 32 38 45 36 32 36
60 61 55 55 53 51 49 49 49 48 48 46 46 44 45 40 41 39 40 40 40 38 37 37 36 36 38 30 23 23 28 28 29 27 23 26 34 36 36 31 32 35 42 41 40 24 28
58 60 63 59 47 52 54 56 52 50 49 48 47 44 44 41 40 41 39 37 40 40 37 38 39 37 35 26 21 22 35 38 36 34 29 28 32 42 40 34 38 41 36 34 29 27 29
53 54 50 59 48 46 48 40 48 55 52 49 46 44 43 39 38 39 37 37 40 41 42 38 40 41 40 43 43 41 37 33 34 36 34 32 36 49 50 43 38 40 37 38 35 29 35
49 57 52 65 52 59 54 49 46 39 52 49 43 41 40 40 36 36 41 42 40 37 43 47 46 52 45 42 48 37 37 35 35 38 34 36 50 45 35 34 36 35 37 41 40 32 29
47 46 43 49 47 49 47 46 38 35 41 32 31 25 18 23 22 29 30 27 24 25 36 54 48 50 38 33 44 36 39 45 47 42 40 45 45 23 28 32 36 41 40 39 37 34 27
44 40 53 48 45 37 35 48 47 34 37 39 32 31 28 20 24 27 25 23 25 16 20 39 29 29 28 23 25 26 24 35 50 53 49 44 48 47 37 35 28 41 36 32 26 20 15
40 43 51 50 57 48 43 44 36 55 45 45 42 44 39 32 38 39 29 20 14 15 5 8 13 16 12 10 12 13 13 19 33 42 37 34 37 25 37 43 37 40 34 30 25 23 25
37 42 42 43 46 38 43 43 38 39 38 46 34 33 31 31 35 31 28 21 14 11 11 8 10 11 14 13 16 18 13 14 15 35 38 45 41 27 30 27 25 31 36 28 27 18 13
51 43 38 36 39 40 31 37 29 30 32 25 22 20 29 34 30 32 27 21 16 10 13 11 14 14 12 15 15 18 18 18 15 11 29 36 41 39 37 26 21 23 18 4 4 6 10
41 39 37 36 40 34 42 40 38 32 30 24 24 26 27 36 35 33 31 33 14 24 29 11 11 8 18 18 21 19 21 24 24 22 17 9 10 26 36 43 34 27 27 12 6 4 3
28 20 21 13 16 16 26 26 25 31 32 31 31 31 41 30 39 33 37 36 24 34 31 40 23 21 21 19 19 13 19 30 30 26 19 9 16 16 17 12 34 43 38 34 20 15 5
18 15 20 16 19 21 29 26 27 33 39 39 40 42 41 36 46 40 43 46 38 44 24 29 30 13 15 23 23 27 26 14 15 25 28 20 17 22 22 17 21 36 26 14 21 7 8
19 17 18 21 23 26 27 26 32 37 42 43 44 44 45 41 52 52 42 44 47 48 38 26 25 26 23 21 19 24 20 23 19 15 18 31 26 25 11 16 26 26 40 22 19 12 6
12 13 14 16 20 23 21 21 24 32 37 36 46 46 43 51 47 51 54 55 43 44 46 41 34 36 32 32 26 26 29 29 22 21 23 27 15 34 40 19 16 22 32 43 19 11 16
13 10 11 13 16 29 19 23 23 21 31 45 38 46 51 53 52 43 39 36 47 43 40 31 38 42 40 42 32 35 35 33 31 28 18 21 20 18 16 24 37 25 30 36 42 27 22
17 16 13 12 12 18 23 24 31 23 33 42 43 39 24 32 51 47 41 33 26 26 26 38 29 34 34 36 42 38 37 33 30 36 36 24 24 19 19 9 16 24 36 35 33 25 19
10 12 13 12 12 12 15 19 22 24 33 29 23 24 33 19 30 33 30 19 19 23 27 24 27 28 24 22 28 33 37 45 41 33 40 24 20 25 24 17 15 15 21 32 37 33 28
9 11 12 14 15 15 14 15 24 23 21 20 18 15 16 22 16 18 19 23 25 22 22 25 25 25 22 21 26 12 21 26 29 27 36 42 33 29 31 35 30 24 21 24 31 29 23
7 9 11 12 14 16 17 18 19 26 24 26 25 22 16 22 23 22 20 20 19 22 21 19 17 17 21 23 28 31 28 24 23 23 26 31 31 23 13 24 27 19 41 38 33 28 33
9 10 12 12 13 14 15 18 20 22 26 27 25 22 22 21 17 19 19 17 18 19 18 15 16 18 16 19 22 23 23 23 24 27 28 18 28 26 17 18 10 24 34 28 30 28 30
13 15 15 16 16 16 17 17 18 19 22 21 23 23 23 24 23 23 22 18 17 15 15 18 19 18 19 21 19 15 19 26 28 29 30 33 26 9 14 23 23 17 28 23 24 26 22
14 16 19 20 21 20 20 19 19 19 19 19 20 19 18 17 16 18 19 20 19 19 19 19 18 15 13 12 6 3 4 8 6 6 12 19 27 30 17 6 5 21 29 33 27 23 24
14 16 17 20 22 23 22 22 22 21 20 19 20 19 18 14 12 13 14 12 12 11 8 10 9 11 11 9 8 5 6 7 6 9 14 16 21 32 29 19 11 28 30 20 21 16 21
18 18 20 19 21 24 24 23 22 21 21 21 21 19 19 19 16 18 16 15 15 13 11 9 9 15 14 12 10 9 9 9 11 15 8 9 7 9 19 14 11 19 22 17 16 13 11
17 19 19 21 21 22 24 24 23 23 22 22 22 21 19 18 17 20 19 20 16 16 16 15 15 10 9 8 11 8 11 11 13 14 16 16 20 22 15 9 8 16 20 23 25 26 30

GFSGBSN_700_spd_177.txt.gz
Wind_Speed
55 50 47 45 42 43 43 42 42 40 39 39 38 37 36 36 34 34 33 33 32 32 31 30 28 27 26 23 21 23 24 23 22 22 22 24 23 22 24 25 24 25 25 27 26 25 30
58 51 50 48 46 44 42 43 43 43 41 41 40 39 38 38 37 36 34 34 34 34 32 33 31 29 31 26 24 23 22 22 22 20 19 19 22 22 23 25 27 29 30 30 30 29 32
54 59 52 51 48 47 44 42 42 43 43 42 41 40 39 38 38 36 36 36 36 36 35 34 34 33 35 21 26 23 20 19 19 19 18 21 24 24 26 25 27 29 33 32 33 32 34
53 52 53 52 51 48 47 46 44 42 43 43 43 43 41 40 39 38 37 39 37 38 38 36 36 37 39 25 23 21 21 18 18 17 18 21 26 29 32 28 28 31 36 41 35 35 31
58 45 57 52 55 49 49 46 46 45 44 43 43 43 44 41 40 39 40 39 40 39 40 40 38 38 38 29 26 22 19 21 21 23 22 25 31 34 36 31 31 35 41 40 40 32 32
59 48 59 60 58 57 53 50 48 46 46 45 44 43 43 41 41 40 41 40 39 42 41 41 41 35 32 28 22 27 23 20 27 36 36 34 34 41 42 36 35 34 33 38 32 23 28
65 62 51 47 52 62 53 53 52 51 47 47 45 46 42 43 42 42 40 41 42 42 43 40 39 32 28 21 25 27 32 34 38 39 37 35 37 50 50 42 37 37 32 36 36 35 41
62 66 60 53 62 51 51 55 52 54 52 52 48 48 46 44 42 42 43 44 43 41 41 42 43 49 44 43 47 42 38 39 42 40 34 36 48 43 36 39 37 36 39 39 41 37 31
72 49 54 60 56 51 51 66 49 46 52 47 49 45 48 43 39 43 39 37 34 33 39 54 50 54 52 49 54 52 44 48 45 42 41 40 40 17 28 35 40 37 35 36 37 37 39
71 49 46 61 63 57 51 42 49 60 41 42 41 45 38 45 36 39 36 31 27 20 22 45 43 47 45 38 46 45 37 43 47 43 40 33 42 44 37 35 29 36 31 31 33 29 19
60 45 41 44 45 50 53 53 41 38 37 39 40 32 31 33 34 27 22 16 17 16 4 12 17 20 17 19 23 21 22 25 34 38 28 27 28 27 31 36 37 40 27 28 25 22 26
70 58 41 35 40 41 38 39 36 37 39 34 32 40 34 30 32 29 24 24 20 13 10 9 10 15 19 19 17 15 13 12 12 21 29 34 34 25 18 15 19 19 18 14 17 17 14
53 51 48 31 39 41 47 38 43 34 35 29 36 35 41 40 36 37 23 26 28 11 9 10 13 16 13 16 20 19 17 15 12 8 16 19 26 30 35 29 20 20 15 4 4 6 8
47 51 39 38 37 39 36 38 32 36 41 35 28 31 30 27 22 29 33 33 11 21 17 7 10 15 15 15 13 15 16 18 18 16 13 8 11 10 19 32 24 27 29 11 6 6 4
45 44 36 40 38 37 39 29 33 32 26 23 25 22 24 24 30 36 35 38 25 29 24 30 10 12 15 19 13 8 13 18 20 18 13 6 14 10 16 10 26 19 31 26 17 15 8
36 37 42 39 35 35 28 24 23 19 19 23 28 33 39 37 41 32 49 37 38 41 27 26 29 17 17 18 17 14 15 14 17 16 15 14 18 17 18 16 17 27 12 12 20 5 9
33 18 28 21 27 12 10 9 12 21 29 36 36 35 39 40 34 43 46 43 46 40 44 36 32 28 24 20 19 20 14 18 20 19 17 17 18 20 15 17 24 28 34 17 18 22 6
19 15 13 10 14 15 15 13 20 30 35 41 45 48 41 40 40 52 49 44 47 47 52 41 33 32 36 29 22 22 24 23 19 20 21 24 17 25 28 29 25 24 31 40 22 16 17
13 15 20 22 25 21 19 18 23 34 40 43 45 48 50 45 50 49 47 45 42 39 39 41 42 46 39 35 24 27 26 27 27 27 22 24 18 15 20 22 25 31 35 36 43 28 33
12 14 16 18 20 19 21 23 21 30 36 40 42 42 48 49 53 58 52 43 40 32 35 37 39 42 39 40 43 32 27 26 31 33 35 35 31 29 25 21 16 21 34 38 36 33 35
8 9 10 10 12 18 25 27 32 33 29 40 42 26 40 36 48 42 50 49 37 27 28 30 34 35 34 30 30 40 40 40 37 33 32 30 33 33 39 43 36 32 31 34 36 39 27
9 8 8 9 11 12 16 23 32 35 35 31 40 44 39 29 26 43 39 36 36 20 22 28 26 23 23 25 24 20 18 23 23 23 32 32 21 30 41 39 44 36 33 31 28 31 30
3 4 7 10 12 13 14 14 16 22 25 26 33 28 21 27 30 22 23 21 15 15 15 17 15 15 17 17 17 17 21 22 18 18 22 28 31 26 25 28 26 22 50 55 50 43 36
5 7 8 9 9 11 14 15 16 23 21 24 22 19 21 16 17 17 19 20 17 15 14 12 14 14 14 14 15 17 19 22 24 28 28 26 27 29 24 20 13 36 35 34 32 32 34
10 10 10 11 13 13 13 13 15 18 21 20 23 22 19 18 17 20 22 18 17 13 13 14 13 14 15 16 14 13 15 18 24 27 29 30 31 16 10 24 31 21 30 25 27 25 26
7 11 15 15 14 15 17 17 16 16 17 19 22 22 20 18 18 18 19 18 17 15 14 12 10 12 11 12 9 5 4 9 5 4 9 19 26 26 20 6 4 5 20 22 17 19 18
11 12 13 14 18 19 19 20 20 19 17 16 18 19 18 15 13 13 15 15 16 16 13 11 13 14 12 9 6 6 5 6 5 8 9 9 15 26 27 16 18 24 23 24 15 7 17
11 11 13 15 17 18 21 22 22 21 20 19 18 16 16 17 13 13 13 12 13 14 13 12 13 15 12 11 7 7 7 9 11 15 11 10 7 5 10 14 11 13 13 10 13 17 15
14 14 15 16 17 19 20 22 23 22 20 20 19 16 14 14 13 16 16 14 15 14 14 13 13 7 12 9 11 8 11 10 12 9 10 13 17 19 14 19 31 40 35 31 30 35 38